Time,TemperatureF,DewpointF,PressureIn,WindDirection,WindDirectionDegrees,WindSpeedMPH,WindSpeedGustMPH,Humidity,HourlyPrecipIn,Conditions,Clouds,dailyrainin,SoftwareType,DateUTC
2013-06-23 00:01:00,68.5,61.4,29.82,West,270,1.1,1.3,78,0.00,,---,0.00,VWS V14.01,2013-06-23 04:01:00,
2013-06-23 00:06:00,68.4,61.2,29.82,West,270,0.0,1.1,78,0.00,,---,0.00,VWS V14.01,2013-06-23 04:06:00,
2013-06-23 00:11:00,68.2,61.4,29.85,West,270,0.0,1.3,79,0.00,,---,0.00,VWS V14.01,2013-06-23 04:11:00,
2013-06-23 00:16:00,68.0,61.2,29.85,West,270,0.0,0.0,79,0.00,,---,0.00,VWS V14.01,2013-06-23 04:16:00,
2013-06-23 00:21:00,68.0,61.2,29.85,West,270,0.0,0.0,79,0.00,,---,0.00,VWS V14.01,2013-06-23 04:21:00,
2013-06-23 00:26:00,68.0,61.2,29.82,West,270,0.0,0.0,79,0.00,,---,0.00,VWS V14.01,2013-06-23 04:26:00,
2013-06-23 00:31:00,68.0,61.2,29.82,West,270,0.0,0.0,79,0.00,,---,0.00,VWS V14.01,2013-06-23 04:31:00,
2013-06-23 00:36:00,67.8,61.1,29.82,West,270,0.9,1.1,79,0.00,,---,0.00,VWS V14.01,2013-06-23 04:36:00,
2013-06-23 00:41:00,67.8,61.1,29.82,West,270,0.0,0.0,79,0.00,,---,0.00,VWS V14.01,2013-06-23 04:41:00,
2013-06-23 00:46:00,67.5,61.1,29.82,West,270,0.0,0.0,80,0.00,,---,0.00,VWS V14.01,2013-06-23 04:46:00,
2013-06-23 00:51:00,67.3,60.9,29.82,West,270,0.0,0.0,80,0.00,,---,0.00,VWS V14.01,2013-06-23 04:51:00,
2013-06-23 00:56:00,67.3,61.3,29.85,West,270,0.0,0.0,81,0.00,,---,0.00,VWS V14.01,2013-06-23 04:56:00,
2013-06-23 01:01:00,67.3,61.3,29.85,West,270,0.0,0.0,81,0.00,,---,0.00,VWS V14.01,2013-06-23 05:01:00,
2013-06-23 01:06:00,67.3,61.3,29.85,West,270,0.0,0.0,81,0.00,,---,0.00,VWS V14.01,2013-06-23 05:06:00,
2013-06-23 01:11:00,67.3,61.3,29.85,West,270,0.0,0.0,81,0.00,,---,0.00,VWS V14.01,2013-06-23 05:11:00,
2013-06-23 01:16:00,67.3,61.3,29.85,West,270,0.0,0.0,81,0.00,,---,0.00,VWS V14.01,2013-06-23 05:16:00,
2013-06-23 01:21:00,67.1,61.1,29.85,West,270,0.0,0.0,81,0.00,,---,0.00,VWS V14.01,2013-06-23 05:21:00,
2013-06-23 01:26:00,66.7,61.1,29.82,West,270,0.0,0.0,82,0.00,,---,0.00,VWS V14.01,2013-06-23 05:26:00,
2013-06-23 01:31:00,66.6,60.9,29.82,West,270,0.0,0.0,82,0.00,,---,0.00,VWS V14.01,2013-06-23 05:31:00,
2013-06-23 01:36:00,66.2,60.9,29.82,West,270,0.0,0.0,83,0.00,,---,0.00,VWS V14.01,2013-06-23 05:36:00,
2013-06-23 01:41:00,65.8,60.9,29.82,West,270,0.0,0.0,84,0.00,,---,0.00,VWS V14.01,2013-06-23 05:41:00,
2013-06-23 01:46:00,65.7,61.0,29.82,West,270,0.0,0.0,85,0.00,,---,0.00,VWS V14.01,2013-06-23 05:46:00,
2013-06-23 01:51:00,65.5,61.2,29.82,West,270,0.0,0.0,86,0.00,,---,0.00,VWS V14.01,2013-06-23 05:51:00,
2013-06-23 01:56:00,65.5,61.2,29.85,West,270,0.0,0.0,86,0.00,,---,0.00,VWS V14.01,2013-06-23 05:56:00,
2013-06-23 02:01:00,65.3,61.3,29.85,West,270,0.0,0.0,87,0.00,,---,0.00,VWS V14.01,2013-06-23 06:01:00,
2013-06-23 02:06:00,65.3,61.3,29.85,West,270,0.0,0.0,87,0.00,,---,0.00,VWS V14.01,2013-06-23 06:06:00,
2013-06-23 02:11:00,65.1,61.5,29.85,West,270,0.0,0.0,88,0.00,,---,0.00,VWS V14.01,2013-06-23 06:11:00,
2013-06-23 02:16:00,65.1,61.8,29.85,West,270,0.0,0.0,89,0.00,,---,0.00,VWS V14.01,2013-06-23 06:16:00,
2013-06-23 02:21:00,65.1,61.8,29.85,West,270,0.0,0.0,89,0.00,,---,0.00,VWS V14.01,2013-06-23 06:21:00,
2013-06-23 02:26:00,65.1,61.8,29.88,West,270,0.0,0.0,89,0.00,,---,0.00,VWS V14.01,2013-06-23 06:26:00,
2013-06-23 02:31:00,65.1,62.1,29.88,West,270,0.0,0.0,90,0.00,,---,0.00,VWS V14.01,2013-06-23 06:31:00,
2013-06-23 02:36:00,65.1,62.4,29.88,West,270,0.0,0.0,91,0.00,,---,0.00,VWS V14.01,2013-06-23 06:36:00,
2013-06-23 02:41:00,65.1,62.1,29.85,West,270,0.0,0.0,90,0.00,,---,0.00,VWS V14.01,2013-06-23 06:41:00,
2013-06-23 02:46:00,65.1,62.1,29.85,West,270,0.0,0.0,90,0.00,,---,0.00,VWS V14.01,2013-06-23 06:46:00,
2013-06-23 02:51:00,65.1,62.1,29.85,West,270,0.0,0.0,90,0.00,,---,0.00,VWS V14.01,2013-06-23 06:51:00,
2013-06-23 02:56:00,65.1,62.1,29.85,West,270,0.0,0.0,90,0.00,,---,0.00,VWS V14.01,2013-06-23 06:56:00,
2013-06-23 03:01:00,65.1,62.4,29.85,West,270,0.0,0.0,91,0.00,,---,0.00,VWS V14.01,2013-06-23 07:01:00,
2013-06-23 03:06:00,65.1,62.4,29.85,West,270,0.0,0.0,91,0.00,,---,0.00,VWS V14.01,2013-06-23 07:06:00,
2013-06-23 03:11:00,65.1,62.7,29.82,West,270,0.0,0.0,92,0.00,,---,0.00,VWS V14.01,2013-06-23 07:11:00,
2013-06-23 03:16:00,64.9,62.2,29.82,West,270,0.0,0.0,91,0.00,,---,0.00,VWS V14.01,2013-06-23 07:16:00,
2013-06-23 03:21:00,65.1,62.4,29.82,West,270,0.0,0.0,91,0.00,,---,0.00,VWS V14.01,2013-06-23 07:21:00,
2013-06-23 03:26:00,65.1,62.4,29.82,West,270,0.0,0.0,91,0.00,,---,0.00,VWS V14.01,2013-06-23 07:26:00,
2013-06-23 03:31:00,65.1,62.4,29.82,West,270,0.0,0.0,91,0.00,,---,0.00,VWS V14.01,2013-06-23 07:31:00,
2013-06-23 03:36:00,64.9,62.2,29.82,West,270,0.0,0.0,91,0.00,,---,0.00,VWS V14.01,2013-06-23 07:36:00,
2013-06-23 03:41:00,64.8,62.1,29.85,West,270,0.0,0.0,91,0.00,,---,0.00,VWS V14.01,2013-06-23 07:41:00,
2013-06-23 03:46:00,64.6,61.9,29.85,West,270,0.0,0.0,91,0.00,,---,0.00,VWS V14.01,2013-06-23 07:46:00,
2013-06-23 03:50:00,64.4,61.7,29.85,West,270,0.0,0.0,91,0.00,,---,0.00,VWS V14.01,2013-06-23 07:50:00,
2013-06-23 03:55:00,64.4,62.0,29.85,West,270,0.0,0.0,92,0.00,,---,0.00,VWS V14.01,2013-06-23 07:55:00,
2013-06-23 04:00:00,64.2,61.8,29.85,West,270,0.0,0.0,92,0.00,,---,0.00,VWS V14.01,2013-06-23 08:00:00,
2013-06-23 04:06:00,64.2,62.2,29.85,West,270,0.0,0.0,93,0.00,,---,0.00,VWS V14.01,2013-06-23 08:06:00,
2013-06-23 04:11:00,64.2,61.8,29.85,West,270,0.0,0.0,92,0.00,,---,0.00,VWS V14.01,2013-06-23 08:11:00,
2013-06-23 04:15:00,64.0,61.7,29.85,West,270,0.0,0.0,92,0.00,,---,0.00,VWS V14.01,2013-06-23 08:15:00,
2013-06-23 04:20:00,64.0,62.0,29.85,West,270,0.0,0.0,93,0.00,,---,0.00,VWS V14.01,2013-06-23 08:20:00,
2013-06-23 04:25:00,64.0,62.0,29.85,West,270,0.0,0.0,93,0.00,,---,0.00,VWS V14.01,2013-06-23 08:25:00,
2013-06-23 04:30:00,64.0,62.0,29.85,West,270,0.0,0.0,93,0.00,,---,0.00,VWS V14.01,2013-06-23 08:30:00,
2013-06-23 04:35:00,64.0,62.0,29.85,West,270,0.0,0.0,93,0.00,,---,0.00,VWS V14.01,2013-06-23 08:35:00,
2013-06-23 04:40:00,63.9,61.8,29.85,West,270,0.0,0.0,93,0.00,,---,0.00,VWS V14.01,2013-06-23 08:40:00,
2013-06-23 04:45:00,63.9,61.8,29.85,West,270,0.0,0.0,93,0.00,,---,0.00,VWS V14.01,2013-06-23 08:45:00,
2013-06-23 04:50:00,63.9,61.8,29.85,West,270,0.0,0.0,93,0.00,,---,0.00,VWS V14.01,2013-06-23 08:50:00,
2013-06-23 04:55:00,63.9,61.8,29.85,West,270,0.0,0.0,93,0.00,,---,0.00,VWS V14.01,2013-06-23 08:55:00,
2013-06-23 05:00:00,63.7,61.6,29.85,West,270,0.0,0.0,93,0.00,,---,0.00,VWS V14.01,2013-06-23 09:00:00,
2013-06-23 05:05:00,63.5,61.4,29.85,West,270,0.0,0.0,93,0.00,,---,0.00,VWS V14.01,2013-06-23 09:05:00,
2013-06-23 05:10:00,63.3,61.3,29.85,West,270,0.0,0.0,93,0.00,,---,0.00,VWS V14.01,2013-06-23 09:10:00,
2013-06-23 05:15:00,63.1,61.1,29.85,West,270,0.0,0.0,93,0.00,,---,0.00,VWS V14.01,2013-06-23 09:15:00,
2013-06-23 05:20:00,63.1,61.1,29.85,SW,225,0.0,0.0,93,0.00,,---,0.00,VWS V14.01,2013-06-23 09:20:00,
2013-06-23 05:25:00,63.1,61.1,29.85,SW,225,0.0,0.0,93,0.00,,---,0.00,VWS V14.01,2013-06-23 09:25:00,
2013-06-23 05:30:00,63.0,60.9,29.85,SW,225,0.0,0.0,93,0.00,,---,0.00,VWS V14.01,2013-06-23 09:30:00,
2013-06-23 05:35:00,63.0,60.9,29.85,SW,225,0.0,0.0,93,0.00,,---,0.00,VWS V14.01,2013-06-23 09:35:00,
2013-06-23 05:40:00,63.0,60.9,29.85,SW,225,0.0,0.0,93,0.00,,---,0.00,VWS V14.01,2013-06-23 09:40:00,
2013-06-23 05:45:00,63.1,61.1,29.85,SW,225,0.0,0.0,93,0.00,,---,0.00,VWS V14.01,2013-06-23 09:45:00,
2013-06-23 05:50:00,63.1,61.1,29.85,SW,225,0.0,0.0,93,0.00,,---,0.00,VWS V14.01,2013-06-23 09:50:00,
2013-06-23 05:55:00,63.3,61.3,29.82,SW,225,0.0,0.0,93,0.00,,---,0.00,VWS V14.01,2013-06-23 09:55:00,
2013-06-23 06:00:00,63.7,61.6,29.82,SW,225,0.0,0.0,93,0.00,,---,0.00,VWS V14.01,2013-06-23 10:00:00,
2013-06-23 06:05:00,63.9,61.8,29.82,SW,225,0.0,0.0,93,0.00,,---,0.00,VWS V14.01,2013-06-23 10:05:00,
2013-06-23 06:10:00,64.0,62.0,29.82,SW,225,0.0,0.0,93,0.00,,---,0.00,VWS V14.01,2013-06-23 10:10:00,
2013-06-23 06:15:00,64.0,61.7,29.82,South,180,0.0,0.0,92,0.00,,---,0.00,VWS V14.01,2013-06-23 10:15:00,
2013-06-23 06:20:00,64.2,61.8,29.82,SE,135,0.9,1.6,92,0.00,,---,0.00,VWS V14.01,2013-06-23 10:20:00,
2013-06-23 06:25:00,64.2,61.8,29.82,SE,135,0.0,0.0,92,0.00,,---,0.00,VWS V14.01,2013-06-23 10:25:00,
2013-06-23 06:30:00,64.4,61.7,29.82,SE,135,0.0,0.0,91,0.00,,---,0.00,VWS V14.01,2013-06-23 10:30:00,
2013-06-23 06:35:00,64.4,61.7,29.82,SE,135,0.0,0.0,91,0.00,,---,0.00,VWS V14.01,2013-06-23 10:35:00,
2013-06-23 06:40:00,64.6,61.6,29.85,South,180,0.0,1.3,90,0.00,,---,0.00,VWS V14.01,2013-06-23 10:40:00,
2013-06-23 06:45:00,64.6,61.6,29.85,SW,225,0.0,0.0,90,0.00,,---,0.00,VWS V14.01,2013-06-23 10:45:00,
2013-06-23 06:50:00,64.6,61.6,29.85,SW,225,0.0,0.0,90,0.00,,---,0.00,VWS V14.01,2013-06-23 10:50:00,
2013-06-23 06:55:00,64.8,61.8,29.82,South,180,0.0,1.3,90,0.00,,---,0.00,VWS V14.01,2013-06-23 10:55:00,
2013-06-23 07:00:00,64.9,61.6,29.82,South,180,0.0,0.0,89,0.00,,---,0.00,VWS V14.01,2013-06-23 11:00:00,
2013-06-23 07:05:00,65.1,61.8,29.82,South,180,0.0,0.0,89,0.00,,---,0.00,VWS V14.01,2013-06-23 11:05:00,
2013-06-23 07:10:00,65.3,62.0,29.85,South,180,0.0,0.0,89,0.00,,---,0.00,VWS V14.01,2013-06-23 11:10:00,
2013-06-23 07:15:00,65.5,62.2,29.85,East,90,0.0,1.1,89,0.00,,---,0.00,VWS V14.01,2013-06-23 11:15:00,
2013-06-23 07:20:00,65.8,62.5,29.85,WSW,248,0.0,0.0,89,0.00,,---,0.00,VWS V14.01,2013-06-23 11:20:00,
2013-06-23 07:25:00,66.0,62.4,29.82,WSW,248,0.0,0.0,88,0.00,,---,0.00,VWS V14.01,2013-06-23 11:25:00,
2013-06-23 07:30:00,66.2,62.2,29.82,WSW,248,0.0,0.0,87,0.00,,---,0.00,VWS V14.01,2013-06-23 11:30:00,
2013-06-23 07:35:00,66.4,62.4,29.82,East,90,0.0,0.0,87,0.00,,---,0.00,VWS V14.01,2013-06-23 11:35:00,
2013-06-23 07:40:00,66.7,62.8,29.85,NNW,338,0.9,1.1,87,0.00,,---,0.00,VWS V14.01,2013-06-23 11:40:00,
2013-06-23 07:45:00,67.1,63.1,29.85,NW,315,0.0,0.0,87,0.00,,---,0.00,VWS V14.01,2013-06-23 11:45:00,
2013-06-23 07:50:00,67.5,63.5,29.85,ENE,68,0.0,0.0,87,0.00,,---,0.00,VWS V14.01,2013-06-23 11:50:00,
2013-06-23 07:55:00,67.6,63.3,29.88,South,180,0.0,0.0,86,0.00,,---,0.00,VWS V14.01,2013-06-23 11:55:00,
2013-06-23 08:00:00,68.0,63.7,29.88,South,180,0.0,0.0,86,0.00,,---,0.00,VWS V14.01,2013-06-23 12:00:00,
2013-06-23 08:05:00,68.4,64.0,29.88,West,270,0.0,0.0,86,0.00,,---,0.00,VWS V14.01,2013-06-23 12:05:00,
2013-06-23 08:10:00,68.7,64.0,29.88,West,270,0.0,0.0,85,0.00,,---,0.00,VWS V14.01,2013-06-23 12:10:00,
2013-06-23 08:15:00,68.7,63.7,29.88,West,270,0.0,0.0,84,0.00,,---,0.00,VWS V14.01,2013-06-23 12:15:00,
2013-06-23 08:20:00,68.7,63.7,29.88,ESE,112,0.0,0.0,84,0.00,,---,0.00,VWS V14.01,2013-06-23 12:20:00,
2013-06-23 08:25:00,69.4,64.4,29.85,ESE,112,0.0,0.0,84,0.00,,---,0.00,VWS V14.01,2013-06-23 12:25:00,
2013-06-23 08:30:00,69.8,64.1,29.85,ESE,112,0.0,0.0,82,0.00,,---,0.00,VWS V14.01,2013-06-23 12:30:00,
2013-06-23 08:35:00,69.6,64.2,29.85,ESE,112,0.0,0.0,83,0.00,,---,0.00,VWS V14.01,2013-06-23 12:35:00,
2013-06-23 08:40:00,69.4,63.7,29.85,NE,45,0.0,0.0,82,0.00,,---,0.00,VWS V14.01,2013-06-23 12:40:00,
2013-06-23 08:45:00,69.4,63.7,29.85,NE,45,0.0,0.0,82,0.00,,---,0.00,VWS V14.01,2013-06-23 12:45:00,
2013-06-23 08:50:00,69.3,63.5,29.85,NE,45,0.0,0.0,82,0.00,,---,0.00,VWS V14.01,2013-06-23 12:50:00,
2013-06-23 08:55:00,69.3,63.5,29.85,NE,45,0.0,0.0,82,0.00,,---,0.00,VWS V14.01,2013-06-23 12:55:00,
2013-06-23 09:00:00,69.4,64.1,29.85,NE,45,0.0,0.0,83,0.00,,---,0.00,VWS V14.01,2013-06-23 13:00:00,
2013-06-23 09:05:00,70.0,64.2,29.85,ENE,68,0.0,0.0,82,0.00,,---,0.00,VWS V14.01,2013-06-23 13:05:00,
2013-06-23 09:10:00,70.7,64.9,29.85,East,90,0.0,0.0,82,0.00,,---,0.00,VWS V14.01,2013-06-23 13:10:00,
2013-06-23 09:15:00,72.1,66.0,29.85,East,90,0.9,1.1,81,0.00,,---,0.00,VWS V14.01,2013-06-23 13:15:00,
2013-06-23 09:20:00,73.6,66.7,29.85,SE,135,0.0,0.9,79,0.00,,---,0.00,VWS V14.01,2013-06-23 13:20:00,
2013-06-23 09:25:00,74.3,66.2,29.85,South,180,0.9,1.6,76,0.00,,---,0.00,VWS V14.01,2013-06-23 13:25:00,
2013-06-23 09:30:00,75.6,67.8,29.85,East,90,2.9,2.9,77,0.00,,---,0.00,VWS V14.01,2013-06-23 13:30:00,
2013-06-23 09:35:00,77.0,66.9,29.85,East,90,1.1,1.6,71,0.00,,---,0.00,VWS V14.01,2013-06-23 13:35:00,
2013-06-23 09:40:00,77.0,67.3,29.85,East,90,1.6,1.6,72,0.00,,---,0.00,VWS V14.01,2013-06-23 13:40:00,
2013-06-23 09:45:00,77.7,66.8,29.85,North,0,0.0,1.1,69,0.00,,---,0.00,VWS V14.01,2013-06-23 13:45:00,
2013-06-23 09:50:00,79.7,68.2,29.85,SE,135,0.0,0.0,68,0.00,,---,0.00,VWS V14.01,2013-06-23 13:50:00,
2013-06-23 09:55:00,80.6,67.8,29.85,ENE,68,1.3,1.6,65,0.00,,---,0.00,VWS V14.01,2013-06-23 13:55:00,
2013-06-23 10:00:00,81.5,67.7,29.85,SSE,158,0.0,1.3,63,0.00,,---,0.00,VWS V14.01,2013-06-23 14:00:00,
2013-06-23 10:05:00,83.1,68.3,29.85,SW,225,0.0,0.0,61,0.00,,---,0.00,VWS V14.01,2013-06-23 14:05:00,
2013-06-23 10:10:00,83.3,68.9,29.88,SSE,158,0.0,0.9,62,0.00,,---,0.00,VWS V14.01,2013-06-23 14:10:00,
2013-06-23 10:15:00,84.0,69.1,29.88,NW,315,0.0,1.1,61,0.00,,---,0.00,VWS V14.01,2013-06-23 14:15:00,
2013-06-23 10:20:00,84.7,67.8,29.88,NE,45,1.3,1.3,57,0.00,,---,0.00,VWS V14.01,2013-06-23 14:20:00,
2013-06-23 10:25:00,85.5,68.5,29.85,SW,225,0.9,1.6,57,0.00,,---,0.00,VWS V14.01,2013-06-23 14:25:00,
2013-06-23 10:30:00,85.8,67.8,29.85,East,90,1.3,3.1,55,0.00,,---,0.00,VWS V14.01,2013-06-23 14:30:00,
2013-06-23 10:35:00,86.4,69.3,29.85,WSW,248,0.9,2.0,57,0.00,,---,0.00,VWS V14.01,2013-06-23 14:35:00,
2013-06-23 10:40:00,86.5,69.0,29.85,SSW,202,2.2,2.2,56,0.00,,---,0.00,VWS V14.01,2013-06-23 14:40:00,
2013-06-23 10:45:00,87.1,69.5,29.85,SE,135,0.9,0.9,56,0.00,,---,0.00,VWS V14.01,2013-06-23 14:45:00,
2013-06-23 10:50:00,88.2,70.5,29.85,ESE,112,0.0,0.0,56,0.00,,---,0.00,VWS V14.01,2013-06-23 14:50:00,
2013-06-23 10:55:00,88.5,68.7,29.85,ESE,112,0.0,1.3,52,0.00,,---,0.00,VWS V14.01,2013-06-23 14:55:00,
2013-06-23 11:00:00,88.3,69.1,29.85,ESE,112,1.1,1.1,53,0.00,,---,0.00,VWS V14.01,2013-06-23 15:00:00,
2013-06-23 11:05:00,88.5,69.8,29.85,ESE,112,0.0,0.0,54,0.00,,---,0.00,VWS V14.01,2013-06-23 15:05:00,
2013-06-23 11:10:00,88.0,69.8,29.85,East,90,1.3,1.3,55,0.00,,---,0.00,VWS V14.01,2013-06-23 15:10:00,
2013-06-23 11:15:00,87.3,69.7,29.85,East,90,0.0,0.0,56,0.00,,---,0.00,VWS V14.01,2013-06-23 15:15:00,
2013-06-23 11:20:00,86.5,69.5,29.85,East,90,1.1,1.1,57,0.00,,---,0.00,VWS V14.01,2013-06-23 15:20:00,
2013-06-23 11:25:00,86.0,68.5,29.85,East,90,0.9,1.3,56,0.00,,---,0.00,VWS V14.01,2013-06-23 15:25:00,
2013-06-23 11:29:00,84.7,68.3,29.85,East,90,1.1,1.1,58,0.00,,---,0.00,VWS V14.01,2013-06-23 15:29:00,
2013-06-23 11:30:00,84.7,68.3,29.85,East,90,0.0,1.1,58,0.00,,---,0.00,VWS V14.01,2013-06-23 15:30:00,
2013-06-23 11:31:00,84.6,68.2,29.85,East,90,0.0,0.0,58,0.00,,---,0.00,VWS V14.01,2013-06-23 15:31:00,
2013-06-23 11:32:00,84.6,68.7,29.85,East,90,0.0,0.0,59,0.00,,---,0.00,VWS V14.01,2013-06-23 15:32:00,
2013-06-23 11:33:00,84.4,69.0,29.85,East,90,0.0,0.0,60,0.00,,---,0.00,VWS V14.01,2013-06-23 15:33:00,
2013-06-23 11:34:00,84.2,68.8,29.85,East,90,0.0,0.0,60,0.00,,---,0.00,VWS V14.01,2013-06-23 15:34:00,
2013-06-23 11:35:00,84.0,68.7,29.85,East,90,0.0,0.0,60,0.00,,---,0.00,VWS V14.01,2013-06-23 15:35:00,
2013-06-23 11:36:00,84.0,68.7,29.85,East,90,0.0,0.0,60,0.00,,---,0.00,VWS V14.01,2013-06-23 15:36:00,
2013-06-23 11:37:00,83.8,69.0,29.85,East,90,0.0,0.0,61,0.00,,---,0.00,VWS V14.01,2013-06-23 15:37:00,
2013-06-23 11:38:00,83.8,69.0,29.85,East,90,0.0,0.0,61,0.00,,---,0.00,VWS V14.01,2013-06-23 15:38:00,
2013-06-23 11:39:00,83.5,69.1,29.85,East,90,0.0,0.0,62,0.00,,---,0.00,VWS V14.01,2013-06-23 15:39:00,
2013-06-23 11:40:00,83.5,68.6,29.85,East,90,0.0,0.0,61,0.00,,---,0.00,VWS V14.01,2013-06-23 15:40:00,
2013-06-23 11:41:00,83.3,68.0,29.85,SE,135,0.9,1.3,60,0.00,,---,0.00,VWS V14.01,2013-06-23 15:41:00,
2013-06-23 11:42:00,83.3,68.9,29.85,ESE,112,0.0,0.9,62,0.00,,---,0.00,VWS V14.01,2013-06-23 15:42:00,
2013-06-23 11:43:00,83.3,68.9,29.85,ESE,112,0.0,0.0,62,0.00,,---,0.00,VWS V14.01,2013-06-23 15:43:00,
2013-06-23 11:44:00,83.3,69.4,29.85,ESE,112,0.0,0.0,63,0.00,,---,0.00,VWS V14.01,2013-06-23 15:44:00,
2013-06-23 11:45:00,83.3,68.9,29.85,ESE,112,0.0,0.0,62,0.00,,---,0.00,VWS V14.01,2013-06-23 15:45:00,
2013-06-23 11:46:00,83.1,70.1,29.85,ESE,112,0.0,0.0,65,0.00,,---,0.00,VWS V14.01,2013-06-23 15:46:00,
2013-06-23 11:47:00,82.9,69.1,29.85,ESE,112,0.0,0.0,63,0.00,,---,0.00,VWS V14.01,2013-06-23 15:47:00,
2013-06-23 11:48:00,82.9,69.1,29.85,ESE,112,0.0,0.0,63,0.00,,---,0.00,VWS V14.01,2013-06-23 15:48:00,
2013-06-23 11:49:00,82.9,69.5,29.85,ESE,112,0.0,0.0,64,0.00,,---,0.00,VWS V14.01,2013-06-23 15:49:00,
2013-06-23 11:50:00,82.9,69.5,29.85,ESE,112,0.0,0.0,64,0.00,,---,0.00,VWS V14.01,2013-06-23 15:50:00,
2013-06-23 11:51:00,82.9,69.5,29.85,ESE,112,0.0,0.0,64,0.00,,---,0.00,VWS V14.01,2013-06-23 15:51:00,
2013-06-23 11:52:00,82.9,69.5,29.85,ESE,112,0.0,0.0,64,0.00,,---,0.00,VWS V14.01,2013-06-23 15:52:00,
2013-06-23 11:53:00,82.9,70.0,29.85,ESE,112,0.0,0.0,65,0.00,,---,0.00,VWS V14.01,2013-06-23 15:53:00,
2013-06-23 11:54:00,82.9,70.0,29.85,ESE,112,0.0,0.0,65,0.00,,---,0.00,VWS V14.01,2013-06-23 15:54:00,
2013-06-23 11:55:00,82.9,69.5,29.85,ESE,112,0.0,0.0,64,0.00,,---,0.00,VWS V14.01,2013-06-23 15:55:00,
2013-06-23 11:56:00,82.8,69.8,29.85,ESE,112,0.0,0.0,65,0.00,,---,0.00,VWS V14.01,2013-06-23 15:56:00,
2013-06-23 11:57:00,82.8,70.2,29.85,ESE,112,0.0,0.0,66,0.00,,---,0.00,VWS V14.01,2013-06-23 15:57:00,
2013-06-23 11:58:00,82.6,69.2,29.85,South,180,0.0,1.1,64,0.00,,---,0.00,VWS V14.01,2013-06-23 15:58:00,
2013-06-23 11:59:00,82.6,69.2,29.85,East,90,0.0,2.0,64,0.00,,---,0.00,VWS V14.01,2013-06-23 15:59:00,
2013-06-23 12:00:00,82.6,69.6,29.85,West,270,0.0,1.1,65,0.00,,---,0.00,VWS V14.01,2013-06-23 16:00:00,
2013-06-23 12:01:00,82.6,69.6,29.85,West,270,0.0,0.0,65,0.00,,---,0.00,VWS V14.01,2013-06-23 16:01:00,
2013-06-23 12:02:00,82.6,70.1,29.85,West,270,0.0,0.0,66,0.00,,---,0.00,VWS V14.01,2013-06-23 16:02:00,
2013-06-23 12:03:00,82.4,69.9,29.85,West,270,0.0,1.1,66,0.00,,---,0.00,VWS V14.01,2013-06-23 16:03:00,
2013-06-23 12:04:00,82.6,69.2,29.85,West,270,0.0,1.1,64,0.00,,---,0.00,VWS V14.01,2013-06-23 16:04:00,
2013-06-23 12:05:00,82.6,70.1,29.85,West,270,0.0,0.0,66,0.00,,---,0.00,VWS V14.01,2013-06-23 16:05:00,
2013-06-23 12:06:00,82.6,70.1,29.85,West,270,0.0,0.0,66,0.00,,---,0.00,VWS V14.01,2013-06-23 16:06:00,
2013-06-23 12:07:00,82.8,69.8,29.85,North,0,0.0,0.9,65,0.00,,---,0.00,VWS V14.01,2013-06-23 16:07:00,
2013-06-23 12:08:00,82.8,69.8,29.85,East,90,0.0,1.3,65,0.00,,---,0.00,VWS V14.01,2013-06-23 16:08:00,
2013-06-23 12:09:00,82.9,70.0,29.85,East,90,0.0,0.0,65,0.00,,---,0.00,VWS V14.01,2013-06-23 16:09:00,
2013-06-23 12:10:00,83.1,70.6,29.85,East,90,0.0,0.0,66,0.00,,---,0.00,VWS V14.01,2013-06-23 16:10:00,
2013-06-23 12:11:00,83.3,70.3,29.85,East,90,0.0,0.0,65,0.00,,---,0.00,VWS V14.01,2013-06-23 16:11:00,
2013-06-23 12:12:00,83.5,70.9,29.85,East,90,0.9,0.9,66,0.00,,---,0.00,VWS V14.01,2013-06-23 16:12:00,
2013-06-23 12:13:00,83.5,71.4,29.85,East,90,0.0,1.1,67,0.00,,---,0.00,VWS V14.01,2013-06-23 16:13:00,
2013-06-23 12:14:00,83.3,71.2,29.85,East,90,0.0,0.0,67,0.00,,---,0.00,VWS V14.01,2013-06-23 16:14:00,
2013-06-23 12:15:00,83.3,70.8,29.85,East,90,1.3,2.2,66,0.00,,---,0.00,VWS V14.01,2013-06-23 16:15:00,
2013-06-23 12:16:00,83.3,69.9,29.85,East,90,0.9,1.3,64,0.00,,---,0.00,VWS V14.01,2013-06-23 16:16:00,
2013-06-23 12:17:00,83.5,70.0,29.85,East,90,0.0,0.9,64,0.00,,---,0.00,VWS V14.01,2013-06-23 16:17:00,
2013-06-23 12:18:00,83.7,70.2,29.85,East,90,0.0,1.1,64,0.00,,---,0.00,VWS V14.01,2013-06-23 16:18:00,
2013-06-23 12:19:00,83.7,70.7,29.85,East,90,0.0,0.0,65,0.00,,---,0.00,VWS V14.01,2013-06-23 16:19:00,
2013-06-23 12:20:00,83.8,70.8,29.85,East,90,0.0,0.0,65,0.00,,---,0.00,VWS V14.01,2013-06-23 16:20:00,
2013-06-23 12:21:00,84.0,71.0,29.85,East,90,0.0,0.0,65,0.00,,---,0.00,VWS V14.01,2013-06-23 16:21:00,
2013-06-23 12:22:00,84.6,71.5,29.85,East,90,0.0,0.0,65,0.00,,---,0.00,VWS V14.01,2013-06-23 16:22:00,
2013-06-23 12:23:00,84.9,72.3,29.85,SE,135,0.0,0.0,66,0.00,,---,0.00,VWS V14.01,2013-06-23 16:23:00,
2013-06-23 12:24:00,84.9,71.8,29.85,SW,225,0.0,0.0,65,0.00,,---,0.00,VWS V14.01,2013-06-23 16:24:00,
2013-06-23 12:25:00,84.9,71.8,29.85,East,90,0.9,0.9,65,0.00,,---,0.00,VWS V14.01,2013-06-23 16:25:00,
2013-06-23 12:26:00,85.1,71.1,29.85,East,90,0.0,0.9,63,0.00,,---,0.00,VWS V14.01,2013-06-23 16:26:00,
2013-06-23 12:27:00,85.3,72.2,29.85,East,90,0.0,1.1,65,0.00,,---,0.00,VWS V14.01,2013-06-23 16:27:00,
2013-06-23 12:28:00,85.1,71.6,29.85,East,90,1.3,1.3,64,0.00,,---,0.00,VWS V14.01,2013-06-23 16:28:00,
2013-06-23 12:29:00,85.1,71.1,29.85,East,90,0.0,1.3,63,0.00,,---,0.00,VWS V14.01,2013-06-23 16:29:00,
2013-06-23 12:30:00,85.1,72.0,29.85,East,90,0.0,0.0,65,0.00,,---,0.00,VWS V14.01,2013-06-23 16:30:00,
2013-06-23 12:31:00,85.3,72.2,29.85,East,90,0.0,0.0,65,0.00,,---,0.00,VWS V14.01,2013-06-23 16:31:00,
2013-06-23 12:32:00,85.8,72.2,29.85,East,90,0.0,0.0,64,0.00,,---,0.00,VWS V14.01,2013-06-23 16:32:00,
2013-06-23 12:33:00,85.8,72.2,29.85,East,90,0.0,0.0,64,0.00,,---,0.00,VWS V14.01,2013-06-23 16:33:00,
2013-06-23 12:34:00,85.8,72.2,29.85,SW,225,0.9,0.9,64,0.00,,---,0.00,VWS V14.01,2013-06-23 16:34:00,
2013-06-23 12:35:00,86.0,71.9,29.85,ESE,112,1.1,1.1,63,0.00,,---,0.00,VWS V14.01,2013-06-23 16:35:00,
2013-06-23 12:36:00,86.0,71.9,29.85,ESE,112,1.6,1.6,63,0.00,,---,0.00,VWS V14.01,2013-06-23 16:36:00,
2013-06-23 12:37:00,86.2,71.6,29.82,ESE,112,1.6,1.6,62,0.00,,---,0.00,VWS V14.01,2013-06-23 16:37:00,
2013-06-23 12:38:00,86.2,71.6,29.82,ESE,112,0.0,1.6,62,0.00,,---,0.00,VWS V14.01,2013-06-23 16:38:00,
2013-06-23 12:39:00,86.2,71.6,29.82,ESE,112,0.9,0.9,62,0.00,,---,0.00,VWS V14.01,2013-06-23 16:39:00,
2013-06-23 12:40:00,87.3,72.7,29.82,ESE,112,0.0,0.9,62,0.00,,---,0.00,VWS V14.01,2013-06-23 16:40:00,
2013-06-23 12:41:00,88.3,73.7,29.82,ESE,112,0.0,0.0,62,0.00,,---,0.00,VWS V14.01,2013-06-23 16:41:00,
2013-06-23 12:42:00,88.7,74.0,29.82,ESE,112,0.0,0.0,62,0.00,,---,0.00,VWS V14.01,2013-06-23 16:42:00,
2013-06-23 12:43:00,89.2,73.6,29.82,ESE,112,0.0,0.0,60,0.00,,---,0.00,VWS V14.01,2013-06-23 16:43:00,
2013-06-23 12:44:00,89.2,73.1,29.82,ESE,112,0.0,0.9,59,0.00,,---,0.00,VWS V14.01,2013-06-23 16:44:00,
2013-06-23 12:45:00,89.4,72.7,29.82,ESE,112,0.0,0.0,58,0.00,,---,0.00,VWS V14.01,2013-06-23 16:45:00,
2013-06-23 12:46:00,89.4,72.7,29.82,SW,225,0.0,1.1,58,0.00,,---,0.00,VWS V14.01,2013-06-23 16:46:00,
2013-06-23 12:47:00,89.8,72.5,29.82,SSW,202,1.1,1.3,57,0.00,,---,0.00,VWS V14.01,2013-06-23 16:47:00,
2013-06-23 12:48:00,89.8,72.0,29.82,SSW,202,1.1,2.0,56,0.00,,---,0.00,VWS V14.01,2013-06-23 16:48:00,
2013-06-23 12:49:00,90.0,72.7,29.82,SE,135,1.3,1.3,57,0.00,,---,0.00,VWS V14.01,2013-06-23 16:49:00,
2013-06-23 12:50:00,90.0,72.7,29.82,SE,135,1.3,1.6,57,0.00,,---,0.00,VWS V14.01,2013-06-23 16:50:00,
2013-06-23 12:51:00,90.9,72.5,29.82,SE,135,1.6,2.5,55,0.00,,---,0.00,VWS V14.01,2013-06-23 16:51:00,
2013-06-23 12:52:00,90.9,74.1,29.82,NW,315,0.9,1.6,58,0.00,,---,0.00,VWS V14.01,2013-06-23 16:52:00,
2013-06-23 12:53:00,90.5,71.1,29.82,SSW,202,0.9,3.1,53,0.00,,---,0.00,VWS V14.01,2013-06-23 16:53:00,
2013-06-23 12:54:00,90.5,71.1,29.82,SE,135,2.0,2.0,53,0.00,,---,0.00,VWS V14.01,2013-06-23 16:54:00,
2013-06-23 12:55:00,90.5,71.1,29.82,SE,135,0.0,2.0,53,0.00,,---,0.00,VWS V14.01,2013-06-23 16:55:00,
2013-06-23 12:56:00,91.6,72.6,29.82,SE,135,1.6,1.6,54,0.00,,---,0.00,VWS V14.01,2013-06-23 16:56:00,
2013-06-23 12:57:00,91.6,72.6,29.82,SE,135,0.0,1.6,54,0.00,,---,0.00,VWS V14.01,2013-06-23 16:57:00,
2013-06-23 12:58:00,91.9,73.5,29.82,SE,135,1.1,1.1,55,0.00,,---,0.00,VWS V14.01,2013-06-23 16:58:00,
2013-06-23 12:59:00,92.3,73.3,29.82,SW,225,1.1,1.1,54,0.00,,---,0.00,VWS V14.01,2013-06-23 16:59:00,
2013-06-23 13:00:00,92.3,73.3,29.82,SW,225,0.9,1.1,54,0.00,,---,0.00,VWS V14.01,2013-06-23 17:00:00,
2013-06-23 13:01:00,92.5,73.4,29.82,West,270,1.3,1.3,54,0.00,,---,0.00,VWS V14.01,2013-06-23 17:01:00,
2013-06-23 13:02:00,92.5,73.4,29.82,SW,225,1.1,1.3,54,0.00,,---,0.00,VWS V14.01,2013-06-23 17:02:00,
2013-06-23 13:03:00,92.7,74.1,29.82,SW,225,0.0,1.1,55,0.00,,---,0.00,VWS V14.01,2013-06-23 17:03:00,
2013-06-23 13:04:00,93.0,73.4,29.82,SW,225,0.0,1.3,53,0.00,,---,0.00,VWS V14.01,2013-06-23 17:04:00,
2013-06-23 13:05:00,93.0,74.5,29.82,SW,225,1.6,1.6,55,0.00,,---,0.00,VWS V14.01,2013-06-23 17:05:00,
2013-06-23 13:06:00,93.0,74.5,29.82,SW,225,1.1,1.6,55,0.00,,---,0.00,VWS V14.01,2013-06-23 17:06:00,
2013-06-23 13:07:00,93.4,73.7,29.79,SW,225,0.0,1.1,53,0.00,,---,0.00,VWS V14.01,2013-06-23 17:07:00,
2013-06-23 13:08:00,93.6,72.7,29.79,South,180,1.1,1.1,51,0.00,,---,0.00,VWS V14.01,2013-06-23 17:08:00,
2013-06-23 13:09:00,93.6,72.7,29.79,South,180,0.9,1.1,51,0.00,,---,0.00,VWS V14.01,2013-06-23 17:09:00,
2013-06-23 13:10:00,93.6,72.7,29.79,East,90,0.9,1.6,51,0.00,,---,0.00,VWS V14.01,2013-06-23 17:10:00,
2013-06-23 13:11:00,93.2,71.8,29.79,East,90,1.6,1.6,50,0.00,,---,0.00,VWS V14.01,2013-06-23 17:11:00,
2013-06-23 13:12:00,93.2,71.8,29.79,SSE,158,1.1,1.6,50,0.00,,---,0.00,VWS V14.01,2013-06-23 17:12:00,
2013-06-23 13:13:00,93.0,71.6,29.79,SSW,202,0.0,1.6,50,0.00,,---,0.00,VWS V14.01,2013-06-23 17:13:00,
2013-06-23 13:14:00,93.0,71.6,29.79,SE,135,0.9,0.9,50,0.00,,---,0.00,VWS V14.01,2013-06-23 17:14:00,
2013-06-23 13:15:00,93.0,70.4,29.79,South,180,1.6,2.9,48,0.00,,---,0.00,VWS V14.01,2013-06-23 17:15:00,
2013-06-23 13:16:00,93.0,70.4,29.79,West,270,0.9,2.0,48,0.00,,---,0.00,VWS V14.01,2013-06-23 17:16:00,
2013-06-23 13:17:00,92.8,70.3,29.79,SW,225,1.1,2.2,48,0.00,,---,0.00,VWS V14.01,2013-06-23 17:17:00,
2013-06-23 13:18:00,93.0,71.1,29.79,SSW,202,0.0,1.1,49,0.00,,---,0.00,VWS V14.01,2013-06-23 17:18:00,
2013-06-23 13:19:00,93.4,72.0,29.79,South,180,1.6,1.6,50,0.00,,---,0.00,VWS V14.01,2013-06-23 17:19:00,
2013-06-23 13:20:00,93.7,72.3,29.79,South,180,0.0,1.6,50,0.00,,---,0.00,VWS V14.01,2013-06-23 17:20:00,
2013-06-23 13:21:00,93.7,72.3,29.79,NW,315,2.0,2.0,50,0.00,,---,0.00,VWS V14.01,2013-06-23 17:21:00,
2013-06-23 13:22:00,93.7,72.3,29.79,NW,315,1.6,2.0,50,0.00,,---,0.00,VWS V14.01,2013-06-23 17:22:00,
2013-06-23 13:23:00,93.9,72.5,29.79,NW,315,0.0,1.6,50,0.00,,---,0.00,VWS V14.01,2013-06-23 17:23:00,
2013-06-23 13:24:00,93.9,72.5,29.79,NW,315,0.9,1.3,50,0.00,,---,0.00,VWS V14.01,2013-06-23 17:24:00,
2013-06-23 13:25:00,93.9,72.5,29.79,NE,45,1.1,2.0,50,0.00,,---,0.00,VWS V14.01,2013-06-23 17:25:00,
2013-06-23 13:26:00,94.5,73.0,29.79,NW,315,0.9,2.7,50,0.00,,---,0.00,VWS V14.01,2013-06-23 17:26:00,
2013-06-23 13:27:00,94.5,73.0,29.79,NW,315,1.1,1.1,50,0.00,,---,0.00,VWS V14.01,2013-06-23 17:27:00,
2013-06-23 13:28:00,94.5,72.4,29.79,NW,315,1.1,2.0,49,0.00,,---,0.00,VWS V14.01,2013-06-23 17:28:00,
2013-06-23 13:29:00,94.3,72.8,29.79,WSW,248,2.0,2.0,50,0.00,,---,0.00,VWS V14.01,2013-06-23 17:29:00,
2013-06-23 13:30:00,94.6,73.1,29.79,WSW,248,0.0,2.0,50,0.00,,---,0.00,VWS V14.01,2013-06-23 17:30:00,
2013-06-23 13:31:00,94.8,73.9,29.79,WSW,248,1.6,1.6,51,0.00,,---,0.00,VWS V14.01,2013-06-23 17:31:00,
2013-06-23 13:32:00,94.8,73.3,29.79,WSW,248,1.3,1.6,50,0.00,,---,0.00,VWS V14.01,2013-06-23 17:32:00,
2013-06-23 13:33:00,95.0,73.5,29.79,WSW,248,0.9,1.6,50,0.00,,---,0.00,VWS V14.01,2013-06-23 17:33:00,
2013-06-23 13:34:00,95.0,72.9,29.79,West,270,1.1,1.6,49,0.00,,---,0.00,VWS V14.01,2013-06-23 17:34:00,
2013-06-23 13:35:00,95.0,72.2,29.79,SE,135,0.9,1.1,48,0.00,,---,0.00,VWS V14.01,2013-06-23 17:35:00,
2013-06-23 13:36:00,95.0,72.9,29.79,SE,135,0.9,1.3,49,0.00,,---,0.00,VWS V14.01,2013-06-23 17:36:00,
2013-06-23 13:37:00,95.0,72.9,29.76,West,270,1.3,2.5,49,0.00,,---,0.00,VWS V14.01,2013-06-23 17:37:00,
2013-06-23 13:38:00,95.0,72.2,29.76,West,270,0.0,1.3,48,0.00,,---,0.00,VWS V14.01,2013-06-23 17:38:00,
2013-06-23 13:39:00,95.2,73.6,29.76,South,180,2.0,2.0,50,0.00,,---,0.00,VWS V14.01,2013-06-23 17:39:00,
2013-06-23 13:40:00,95.2,72.4,29.76,South,180,2.0,3.8,48,0.00,,---,0.00,VWS V14.01,2013-06-23 17:40:00,
2013-06-23 13:41:00,95.0,71.6,29.76,SE,135,0.9,2.0,47,0.00,,---,0.00,VWS V14.01,2013-06-23 17:41:00,
2013-06-23 13:42:00,95.4,72.6,29.76,SE,135,1.1,1.6,48,0.00,,---,0.00,VWS V14.01,2013-06-23 17:42:00,
2013-06-23 13:43:00,95.5,73.3,29.76,SE,135,1.1,1.1,49,0.00,,---,0.00,VWS V14.01,2013-06-23 17:43:00,
2013-06-23 13:44:00,95.5,72.7,29.76,SE,135,0.0,1.3,48,0.00,,---,0.00,VWS V14.01,2013-06-23 17:44:00,
2013-06-23 13:45:00,95.5,73.3,29.76,SE,135,0.9,1.1,49,0.00,,---,0.00,VWS V14.01,2013-06-23 17:45:00,
2013-06-23 13:46:00,95.7,72.9,29.76,SSW,202,1.1,2.0,48,0.00,,---,0.00,VWS V14.01,2013-06-23 17:46:00,
2013-06-23 13:47:00,95.4,71.9,29.76,NW,315,0.0,3.6,47,0.00,,---,0.00,VWS V14.01,2013-06-23 17:47:00,
2013-06-23 13:48:00,95.5,72.1,29.76,NW,315,1.1,1.3,47,0.00,,---,0.00,VWS V14.01,2013-06-23 17:48:00,
2013-06-23 13:49:00,95.4,72.6,29.76,SW,225,0.9,1.6,48,0.00,,---,0.00,VWS V14.01,2013-06-23 17:49:00,
2013-06-23 13:50:00,95.5,72.1,29.76,SW,225,0.9,1.3,47,0.00,,---,0.00,VWS V14.01,2013-06-23 17:50:00,
2013-06-23 13:51:00,95.5,72.1,29.76,West,270,1.3,1.3,47,0.00,,---,0.00,VWS V14.01,2013-06-23 17:51:00,
2013-06-23 13:52:00,95.5,71.5,29.79,SSW,202,1.1,2.9,46,0.00,,---,0.00,VWS V14.01,2013-06-23 17:52:00,
2013-06-23 13:53:00,95.7,72.3,29.79,South,180,1.6,1.6,47,0.00,,---,0.00,VWS V14.01,2013-06-23 17:53:00,
2013-06-23 13:54:00,96.1,73.2,29.79,SSW,202,1.1,1.6,48,0.00,,---,0.00,VWS V14.01,2013-06-23 17:54:00,
2013-06-23 13:55:00,95.9,73.1,29.79,SSW,202,0.9,1.1,48,0.00,,---,0.00,VWS V14.01,2013-06-23 17:55:00,
2013-06-23 13:56:00,96.3,72.8,29.79,SSW,202,1.1,1.1,47,0.00,,---,0.00,VWS V14.01,2013-06-23 17:56:00,
2013-06-23 13:57:00,96.1,72.0,29.79,SW,225,1.1,2.5,46,0.00,,---,0.00,VWS V14.01,2013-06-23 17:57:00,
2013-06-23 13:58:00,96.3,73.4,29.79,SSW,202,1.6,1.6,48,0.00,,---,0.00,VWS V14.01,2013-06-23 17:58:00,
2013-06-23 13:59:00,96.3,72.8,29.79,SSW,202,0.9,1.6,47,0.00,,---,0.00,VWS V14.01,2013-06-23 17:59:00,
2013-06-23 14:00:00,96.1,73.2,29.79,SW,225,1.1,3.4,48,0.00,,---,0.00,VWS V14.01,2013-06-23 18:00:00,
2013-06-23 14:01:00,96.3,72.8,29.79,SW,225,0.9,2.0,47,0.00,,---,0.00,VWS V14.01,2013-06-23 18:01:00,
2013-06-23 14:02:00,96.4,72.9,29.79,East,90,0.9,1.3,47,0.00,,---,0.00,VWS V14.01,2013-06-23 18:02:00,
2013-06-23 14:03:00,96.4,72.9,29.79,SSW,202,2.0,2.0,47,0.00,,---,0.00,VWS V14.01,2013-06-23 18:03:00,
2013-06-23 14:04:00,96.4,72.3,29.79,South,180,1.6,2.0,46,0.00,,---,0.00,VWS V14.01,2013-06-23 18:04:00,
2013-06-23 14:05:00,96.6,73.1,29.79,SE,135,0.9,1.6,47,0.00,,---,0.00,VWS V14.01,2013-06-23 18:05:00,
2013-06-23 14:06:00,96.8,72.6,29.79,NW,315,1.1,2.0,46,0.00,,---,0.00,VWS V14.01,2013-06-23 18:06:00,
2013-06-23 14:07:00,97.0,72.1,29.79,NW,315,1.1,1.6,45,0.00,,---,0.00,VWS V14.01,2013-06-23 18:07:00,
2013-06-23 14:08:00,97.0,73.4,29.79,NW,315,1.3,1.3,47,0.00,,---,0.00,VWS V14.01,2013-06-23 18:08:00,
2013-06-23 14:09:00,97.0,73.4,29.79,NW,315,0.9,1.6,47,0.00,,---,0.00,VWS V14.01,2013-06-23 18:09:00,
2013-06-23 14:10:00,97.2,73.6,29.79,SW,225,1.3,1.6,47,0.00,,---,0.00,VWS V14.01,2013-06-23 18:10:00,
2013-06-23 14:11:00,97.3,73.8,29.79,SW,225,1.6,4.9,47,0.00,,---,0.00,VWS V14.01,2013-06-23 18:11:00,
2013-06-23 14:12:00,97.2,73.6,29.79,SW,225,0.0,1.6,47,0.00,,---,0.00,VWS V14.01,2013-06-23 18:12:00,
2013-06-23 14:13:00,97.3,73.1,29.79,SW,225,1.1,1.1,46,0.00,,---,0.00,VWS V14.01,2013-06-23 18:13:00,
2013-06-23 14:14:00,97.3,73.1,29.79,SW,225,1.6,2.0,46,0.00,,---,0.00,VWS V14.01,2013-06-23 18:14:00,
2013-06-23 14:15:00,97.3,71.8,29.79,South,180,1.6,3.4,44,0.00,,---,0.00,VWS V14.01,2013-06-23 18:15:00,
2013-06-23 14:16:00,97.3,72.5,29.79,South,180,0.9,1.6,45,0.00,,---,0.00,VWS V14.01,2013-06-23 18:16:00,
2013-06-23 14:17:00,97.5,73.9,29.79,South,180,0.0,1.3,47,0.00,,---,0.00,VWS V14.01,2013-06-23 18:17:00,
2013-06-23 14:18:00,97.3,72.5,29.79,South,180,0.0,0.9,45,0.00,,---,0.00,VWS V14.01,2013-06-23 18:18:00,
2013-06-23 14:19:00,97.2,71.6,29.79,SSW,202,1.1,1.3,44,0.00,,---,0.00,VWS V14.01,2013-06-23 18:19:00,
2013-06-23 14:20:00,97.2,72.3,29.79,SSW,202,0.0,1.1,45,0.00,,---,0.00,VWS V14.01,2013-06-23 18:20:00,
2013-06-23 14:21:00,96.6,73.1,29.79,SSW,202,0.0,1.1,47,0.00,,---,0.00,VWS V14.01,2013-06-23 18:21:00,
2013-06-23 14:22:00,96.6,73.1,29.79,SSW,202,2.0,2.0,47,0.00,,---,0.00,VWS V14.01,2013-06-23 18:22:00,
2013-06-23 14:23:00,96.8,73.3,29.79,SSW,202,0.0,2.0,47,0.00,,---,0.00,VWS V14.01,2013-06-23 18:23:00,
2013-06-23 14:24:00,96.8,72.6,29.79,SSW,202,1.3,1.6,46,0.00,,---,0.00,VWS V14.01,2013-06-23 18:24:00,
2013-06-23 14:25:00,96.8,72.6,29.79,East,90,0.9,1.3,46,0.00,,---,0.00,VWS V14.01,2013-06-23 18:25:00,
2013-06-23 14:26:00,97.0,72.1,29.79,SE,135,1.1,1.3,45,0.00,,---,0.00,VWS V14.01,2013-06-23 18:26:00,
2013-06-23 14:27:00,96.4,70.3,29.79,SSW,202,1.3,1.3,43,0.00,,---,0.00,VWS V14.01,2013-06-23 18:27:00,
2013-06-23 14:28:00,96.4,71.6,29.79,SW,225,2.0,2.0,45,0.00,,---,0.00,VWS V14.01,2013-06-23 18:28:00,
2013-06-23 14:29:00,96.4,72.3,29.79,East,90,0.9,2.0,46,0.00,,---,0.00,VWS V14.01,2013-06-23 18:29:00,
2013-06-23 14:30:00,96.3,71.5,29.79,East,90,1.6,1.6,45,0.00,,---,0.00,VWS V14.01,2013-06-23 18:30:00,
2013-06-23 14:31:00,96.4,71.0,29.79,East,90,1.1,1.6,44,0.00,,---,0.00,VWS V14.01,2013-06-23 18:31:00,
2013-06-23 14:32:00,96.3,71.5,29.79,East,90,1.1,2.7,45,0.00,,---,0.00,VWS V14.01,2013-06-23 18:32:00,
2013-06-23 14:33:00,96.3,71.5,29.79,East,90,1.1,1.6,45,0.00,,---,0.00,VWS V14.01,2013-06-23 18:33:00,
2013-06-23 14:34:00,96.3,71.5,29.79,NW,315,1.3,2.0,45,0.00,,---,0.00,VWS V14.01,2013-06-23 18:34:00,
2013-06-23 14:35:00,95.9,71.2,29.79,NW,315,0.9,1.6,45,0.00,,---,0.00,VWS V14.01,2013-06-23 18:35:00,
2013-06-23 14:36:00,95.7,71.0,29.79,North,0,1.6,2.0,45,0.00,,---,0.00,VWS V14.01,2013-06-23 18:36:00,
2013-06-23 14:37:00,95.5,70.8,29.79,WSW,248,1.1,2.5,45,0.00,,---,0.00,VWS V14.01,2013-06-23 18:37:00,
2013-06-23 14:38:00,95.4,70.0,29.79,SW,225,1.6,1.6,44,0.00,,---,0.00,VWS V14.01,2013-06-23 18:38:00,
2013-06-23 14:39:00,95.4,70.7,29.79,East,90,2.7,3.4,45,0.00,,---,0.00,VWS V14.01,2013-06-23 18:39:00,
2013-06-23 14:40:00,95.5,70.8,29.79,East,90,0.0,2.7,45,0.00,,---,0.00,VWS V14.01,2013-06-23 18:40:00,
2013-06-23 14:41:00,95.7,71.6,29.79,SW,225,1.6,2.0,46,0.00,,---,0.00,VWS V14.01,2013-06-23 18:41:00,
2013-06-23 14:42:00,95.9,71.2,29.79,SW,225,1.6,2.0,45,0.00,,---,0.00,VWS V14.01,2013-06-23 18:42:00,
2013-06-23 14:43:00,96.1,72.0,29.79,SW,225,1.1,2.2,46,0.00,,---,0.00,VWS V14.01,2013-06-23 18:43:00,
2013-06-23 14:44:00,96.1,72.0,29.79,East,90,1.6,1.6,46,0.00,,---,0.00,VWS V14.01,2013-06-23 18:44:00,
2013-06-23 14:45:00,96.3,71.5,29.79,East,90,0.0,1.6,45,0.00,,---,0.00,VWS V14.01,2013-06-23 18:45:00,
2013-06-23 14:46:00,96.3,72.1,29.79,West,270,2.2,2.2,46,0.00,,---,0.00,VWS V14.01,2013-06-23 18:46:00,
2013-06-23 14:47:00,96.3,71.5,29.79,West,270,0.0,2.2,45,0.00,,---,0.00,VWS V14.01,2013-06-23 18:47:00,
2013-06-23 14:48:00,96.4,71.6,29.79,West,270,0.0,0.0,45,0.00,,---,0.00,VWS V14.01,2013-06-23 18:48:00,
2013-06-23 14:49:00,96.6,72.5,29.79,West,270,0.0,1.1,46,0.00,,---,0.00,VWS V14.01,2013-06-23 18:49:00,
2013-06-23 14:50:00,96.6,71.8,29.79,West,270,0.9,2.0,45,0.00,,---,0.00,VWS V14.01,2013-06-23 18:50:00,
2013-06-23 14:51:00,96.4,72.3,29.79,SSW,202,1.3,2.7,46,0.00,,---,0.00,VWS V14.01,2013-06-23 18:51:00,
2013-06-23 14:52:00,96.1,71.3,29.79,SE,135,1.1,2.0,45,0.00,,---,0.00,VWS V14.01,2013-06-23 18:52:00,
2013-06-23 14:53:00,96.1,70.7,29.79,South,180,0.0,2.5,44,0.00,,---,0.00,VWS V14.01,2013-06-23 18:53:00,
2013-06-23 14:54:00,95.7,71.0,29.79,ENE,68,1.1,2.2,45,0.00,,---,0.00,VWS V14.01,2013-06-23 18:54:00,
2013-06-23 14:55:00,95.7,71.0,29.79,ENE,68,0.0,2.0,45,0.00,,---,0.00,VWS V14.01,2013-06-23 18:55:00,
2013-06-23 14:57:00,95.2,71.2,29.79,ENE,68,1.1,1.1,46,0.00,,---,0.00,VWS V14.01,2013-06-23 18:57:00,
2013-06-23 14:58:00,95.0,71.0,29.79,ENE,68,0.0,1.1,46,0.00,,---,0.00,VWS V14.01,2013-06-23 18:58:00,
2013-06-23 14:59:00,94.8,71.5,29.79,West,270,2.0,2.0,47,0.00,,---,0.00,VWS V14.01,2013-06-23 18:59:00,
2013-06-23 15:00:00,94.6,70.7,29.79,West,270,2.0,2.0,46,0.00,,---,0.00,VWS V14.01,2013-06-23 19:00:00,
2013-06-23 15:01:00,94.5,69.9,29.79,NW,315,1.1,2.0,45,0.00,,---,0.00,VWS V14.01,2013-06-23 19:01:00,
2013-06-23 15:02:00,94.5,69.9,29.79,SW,225,1.6,2.5,45,0.00,,---,0.00,VWS V14.01,2013-06-23 19:02:00,
2013-06-23 15:03:00,94.6,70.7,29.79,South,180,0.9,1.6,46,0.00,,---,0.00,VWS V14.01,2013-06-23 19:03:00,
2013-06-23 15:04:00,94.6,70.0,29.79,SW,225,0.9,2.5,45,0.00,,---,0.00,VWS V14.01,2013-06-23 19:04:00,
2013-06-23 15:05:00,94.8,70.2,29.79,SW,225,1.6,2.0,45,0.00,,---,0.00,VWS V14.01,2013-06-23 19:05:00,
2013-06-23 15:06:00,95.0,70.3,29.79,SW,225,2.5,2.5,45,0.00,,---,0.00,VWS V14.01,2013-06-23 19:06:00,
2013-06-23 15:07:00,95.0,69.7,29.79,NNW,338,3.8,3.8,44,0.00,,---,0.00,VWS V14.01,2013-06-23 19:07:00,
2013-06-23 15:08:00,95.0,69.7,29.79,WSW,248,1.1,3.8,44,0.00,,---,0.00,VWS V14.01,2013-06-23 19:08:00,
2013-06-23 15:09:00,95.0,69.7,29.79,SSW,202,2.5,2.5,44,0.00,,---,0.00,VWS V14.01,2013-06-23 19:09:00,
2013-06-23 15:10:00,95.2,69.8,29.79,West,270,1.3,2.5,44,0.00,,---,0.00,VWS V14.01,2013-06-23 19:10:00,
2013-06-23 15:11:00,95.2,69.8,29.79,SW,225,3.1,3.1,44,0.00,,---,0.00,VWS V14.01,2013-06-23 19:11:00,
2013-06-23 15:12:00,94.8,68.8,29.79,SW,225,1.6,3.1,43,0.00,,---,0.00,VWS V14.01,2013-06-23 19:12:00,
2013-06-23 15:13:00,95.0,69.0,29.79,East,90,1.6,2.5,43,0.00,,---,0.00,VWS V14.01,2013-06-23 19:13:00,
2013-06-23 15:14:00,94.5,68.5,29.79,SE,135,2.0,2.5,43,0.00,,---,0.00,VWS V14.01,2013-06-23 19:14:00,
2013-06-23 15:15:00,94.6,68.7,29.79,WSW,248,2.0,2.0,43,0.00,,---,0.00,VWS V14.01,2013-06-23 19:15:00,
2013-06-23 15:16:00,94.6,68.0,29.79,SE,135,0.9,2.0,42,0.00,,---,0.00,VWS V14.01,2013-06-23 19:16:00,
2013-06-23 15:17:00,94.6,69.4,29.79,West,270,1.3,2.0,44,0.00,,---,0.00,VWS V14.01,2013-06-23 19:17:00,
2013-06-23 15:18:00,94.8,69.5,29.79,West,270,0.0,1.3,44,0.00,,---,0.00,VWS V14.01,2013-06-23 19:18:00,
2013-06-23 15:19:00,94.8,70.2,29.79,SSW,202,1.3,2.0,45,0.00,,---,0.00,VWS V14.01,2013-06-23 19:19:00,
2013-06-23 15:20:00,95.4,70.7,29.79,East,90,1.3,1.3,45,0.00,,---,0.00,VWS V14.01,2013-06-23 19:20:00,
2013-06-23 15:21:00,95.4,70.0,29.79,East,90,1.3,1.6,44,0.00,,---,0.00,VWS V14.01,2013-06-23 19:21:00,
2013-06-23 15:22:00,95.5,69.5,29.76,East,90,0.9,1.6,43,0.00,,---,0.00,VWS V14.01,2013-06-23 19:22:00,
2013-06-23 15:23:00,95.4,70.0,29.76,East,90,1.1,2.2,44,0.00,,---,0.00,VWS V14.01,2013-06-23 19:23:00,
2013-06-23 15:24:00,95.4,70.0,29.76,East,90,1.3,1.6,44,0.00,,---,0.00,VWS V14.01,2013-06-23 19:24:00,
2013-06-23 15:25:00,95.4,70.0,29.76,SE,135,2.5,2.5,44,0.00,,---,0.00,VWS V14.01,2013-06-23 19:25:00,
2013-06-23 15:26:00,95.2,69.2,29.76,South,180,2.7,2.7,43,0.00,,---,0.00,VWS V14.01,2013-06-23 19:26:00,
2013-06-23 15:27:00,94.8,69.5,29.76,SSW,202,0.9,2.7,44,0.00,,---,0.00,VWS V14.01,2013-06-23 19:27:00,
2013-06-23 15:28:00,94.8,69.5,29.76,SW,225,0.9,2.0,44,0.00,,---,0.00,VWS V14.01,2013-06-23 19:28:00,
2013-06-23 15:29:00,95.0,69.0,29.76,East,90,1.1,2.0,43,0.00,,---,0.00,VWS V14.01,2013-06-23 19:29:00,
2013-06-23 15:30:00,95.0,69.0,29.76,West,270,1.1,2.9,43,0.00,,---,0.00,VWS V14.01,2013-06-23 19:30:00,
2013-06-23 15:31:00,95.0,69.0,29.76,East,90,0.0,3.4,43,0.00,,---,0.00,VWS V14.01,2013-06-23 19:31:00,
2013-06-23 15:32:00,95.0,69.0,29.76,South,180,2.2,2.2,43,0.00,,---,0.00,VWS V14.01,2013-06-23 19:32:00,
2013-06-23 15:33:00,95.2,69.8,29.76,WSW,248,1.3,2.2,44,0.00,,---,0.00,VWS V14.01,2013-06-23 19:33:00,
2013-06-23 15:34:00,95.2,69.8,29.76,WSW,248,1.1,2.0,44,0.00,,---,0.00,VWS V14.01,2013-06-23 19:34:00,
2013-06-23 15:35:00,95.2,69.8,29.76,WSW,248,3.1,3.8,44,0.00,,---,0.00,VWS V14.01,2013-06-23 19:35:00,
2013-06-23 15:36:00,94.8,69.5,29.76,WSW,248,2.0,3.1,44,0.00,,---,0.00,VWS V14.01,2013-06-23 19:36:00,
2013-06-23 15:37:00,94.6,68.7,29.74,SSW,202,3.1,3.1,43,0.00,,---,0.00,VWS V14.01,2013-06-23 19:37:00,
2013-06-23 15:38:00,94.6,68.7,29.74,SSW,202,2.2,3.1,43,0.00,,---,0.00,VWS V14.01,2013-06-23 19:38:00,
2013-06-23 15:39:00,94.8,69.5,29.74,SSW,202,0.9,2.2,44,0.00,,---,0.00,VWS V14.01,2013-06-23 19:39:00,
2013-06-23 15:40:00,94.8,70.2,29.74,SSE,158,0.0,1.3,45,0.00,,---,0.00,VWS V14.01,2013-06-23 19:40:00,
2013-06-23 15:41:00,94.8,70.2,29.74,SSE,158,0.0,1.1,45,0.00,,---,0.00,VWS V14.01,2013-06-23 19:41:00,
2013-06-23 15:42:00,94.8,69.5,29.74,SE,135,2.0,2.0,44,0.00,,---,0.00,VWS V14.01,2013-06-23 19:42:00,
2013-06-23 15:43:00,94.8,68.8,29.74,West,270,1.6,3.1,43,0.00,,---,0.00,VWS V14.01,2013-06-23 19:43:00,
2013-06-23 15:44:00,94.5,68.5,29.74,WNW,292,2.0,2.0,43,0.00,,---,0.00,VWS V14.01,2013-06-23 19:44:00,
2013-06-23 15:45:00,94.6,69.4,29.74,WNW,292,0.0,2.0,44,0.00,,---,0.00,VWS V14.01,2013-06-23 19:45:00,
2013-06-23 15:46:00,94.6,69.4,29.74,WNW,292,0.9,1.1,44,0.00,,---,0.00,VWS V14.01,2013-06-23 19:46:00,
2013-06-23 15:47:00,94.6,70.0,29.74,WNW,292,1.3,1.3,45,0.00,,---,0.00,VWS V14.01,2013-06-23 19:47:00,
2013-06-23 15:48:00,94.6,70.0,29.74,WNW,292,1.3,1.3,45,0.00,,---,0.00,VWS V14.01,2013-06-23 19:48:00,
2013-06-23 15:49:00,94.8,70.8,29.74,South,180,1.1,1.3,46,0.00,,---,0.00,VWS V14.01,2013-06-23 19:49:00,
2013-06-23 15:50:00,94.8,70.2,29.74,SW,225,1.3,3.4,45,0.00,,---,0.00,VWS V14.01,2013-06-23 19:50:00,
2013-06-23 15:51:00,94.8,70.2,29.74,SW,225,1.6,1.6,45,0.00,,---,0.00,VWS V14.01,2013-06-23 19:51:00,
2013-06-23 15:52:00,94.6,69.4,29.74,ESE,112,1.3,4.7,44,0.00,,---,0.00,VWS V14.01,2013-06-23 19:52:00,
2013-06-23 15:53:00,94.8,70.2,29.74,ESE,112,0.9,1.3,45,0.00,,---,0.00,VWS V14.01,2013-06-23 19:53:00,
2013-06-23 15:54:00,94.6,70.0,29.74,SW,225,1.1,1.6,45,0.00,,---,0.00,VWS V14.01,2013-06-23 19:54:00,
2013-06-23 15:55:00,94.1,69.5,29.74,WSW,248,2.5,2.7,45,0.00,,---,0.00,VWS V14.01,2013-06-23 19:55:00,
2013-06-23 15:56:00,94.1,69.5,29.74,SE,135,1.1,2.5,45,0.00,,---,0.00,VWS V14.01,2013-06-23 19:56:00,
2013-06-23 15:57:00,94.1,69.5,29.74,West,270,0.9,2.2,45,0.00,,---,0.00,VWS V14.01,2013-06-23 19:57:00,
2013-06-23 15:58:00,93.4,68.9,29.74,South,180,0.9,2.7,45,0.00,,---,0.00,VWS V14.01,2013-06-23 19:58:00,
2013-06-23 15:59:00,93.4,68.9,29.74,SE,135,0.9,2.5,45,0.00,,---,0.00,VWS V14.01,2013-06-23 19:59:00,
2013-06-23 16:00:00,93.2,68.7,29.74,SE,135,1.3,2.0,45,0.00,,---,0.00,VWS V14.01,2013-06-23 20:00:00,
2013-06-23 16:01:00,93.2,68.1,29.74,SW,225,2.0,3.6,44,0.00,,---,0.00,VWS V14.01,2013-06-23 20:01:00,
2013-06-23 16:02:00,93.2,68.7,29.74,SW,225,0.9,2.0,45,0.00,,---,0.00,VWS V14.01,2013-06-23 20:02:00,
2013-06-23 16:03:00,93.2,68.7,29.74,SW,225,1.6,1.6,45,0.00,,---,0.00,VWS V14.01,2013-06-23 20:03:00,
2013-06-23 16:04:00,93.4,69.5,29.74,SW,225,2.0,2.0,46,0.00,,---,0.00,VWS V14.01,2013-06-23 20:04:00,
2013-06-23 16:05:00,93.6,69.7,29.74,SW,225,2.0,2.0,46,0.00,,---,0.00,VWS V14.01,2013-06-23 20:05:00,
2013-06-23 16:06:00,93.6,70.3,29.74,SW,225,0.9,2.0,47,0.00,,---,0.00,VWS V14.01,2013-06-23 20:06:00,
2013-06-23 16:07:00,93.2,70.0,29.71,SW,225,2.0,2.0,47,0.00,,---,0.00,VWS V14.01,2013-06-23 20:07:00,
2013-06-23 16:08:00,93.4,70.2,29.71,SSE,158,0.0,2.0,47,0.00,,---,0.00,VWS V14.01,2013-06-23 20:08:00,
2013-06-23 16:09:00,93.2,69.4,29.71,SSW,202,1.1,1.1,46,0.00,,---,0.00,VWS V14.01,2013-06-23 20:09:00,
2013-06-23 16:10:00,93.0,69.8,29.71,SE,135,1.6,3.6,47,0.00,,---,0.00,VWS V14.01,2013-06-23 20:10:00,
2013-06-23 16:11:00,92.8,69.7,29.71,SSW,202,0.9,2.0,47,0.00,,---,0.00,VWS V14.01,2013-06-23 20:11:00,
2013-06-23 16:12:00,93.0,69.8,29.71,East,90,1.3,1.3,47,0.00,,---,0.00,VWS V14.01,2013-06-23 20:12:00,
2013-06-23 16:13:00,93.0,69.2,29.71,SSW,202,2.0,4.0,46,0.00,,---,0.00,VWS V14.01,2013-06-23 20:13:00,
2013-06-23 16:14:00,92.8,69.0,29.71,SW,225,2.7,4.3,46,0.00,,---,0.00,VWS V14.01,2013-06-23 20:14:00,
2013-06-23 16:15:00,92.5,68.7,29.71,SSW,202,3.8,3.8,46,0.00,,---,0.00,VWS V14.01,2013-06-23 20:15:00,
2013-06-23 16:16:00,92.7,68.9,29.71,SSW,202,1.3,3.8,46,0.00,,---,0.00,VWS V14.01,2013-06-23 20:16:00,
2013-06-23 16:17:00,92.8,69.0,29.71,NE,45,1.3,1.3,46,0.00,,---,0.00,VWS V14.01,2013-06-23 20:17:00,
2013-06-23 16:18:00,92.8,69.0,29.71,SW,225,2.9,2.9,46,0.00,,---,0.00,VWS V14.01,2013-06-23 20:18:00,
2013-06-23 16:19:00,92.8,69.0,29.71,East,90,1.6,2.9,46,0.00,,---,0.00,VWS V14.01,2013-06-23 20:19:00,
2013-06-23 16:20:00,92.8,69.0,29.71,SW,225,0.9,2.7,46,0.00,,---,0.00,VWS V14.01,2013-06-23 20:20:00,
2013-06-23 16:21:00,93.0,69.8,29.71,SW,225,0.0,1.6,47,0.00,,---,0.00,VWS V14.01,2013-06-23 20:21:00,
2013-06-23 16:22:00,93.2,70.0,29.71,SW,225,1.6,1.6,47,0.00,,---,0.00,VWS V14.01,2013-06-23 20:22:00,
2013-06-23 16:23:00,93.2,70.0,29.71,SW,225,2.0,2.0,47,0.00,,---,0.00,VWS V14.01,2013-06-23 20:23:00,
2013-06-23 16:24:00,93.2,70.0,29.71,SSE,158,2.5,2.7,47,0.00,,---,0.00,VWS V14.01,2013-06-23 20:24:00,
2013-06-23 16:25:00,93.4,69.5,29.71,SW,225,0.9,2.5,46,0.00,,---,0.00,VWS V14.01,2013-06-23 20:25:00,
2013-06-23 16:26:00,93.6,70.3,29.71,SW,225,1.3,2.0,47,0.00,,---,0.00,VWS V14.01,2013-06-23 20:26:00,
2013-06-23 16:27:00,93.6,70.3,29.71,SW,225,1.1,1.3,47,0.00,,---,0.00,VWS V14.01,2013-06-23 20:27:00,
2013-06-23 16:28:00,93.7,70.5,29.71,SSW,202,0.9,1.1,47,0.00,,---,0.00,VWS V14.01,2013-06-23 20:28:00,
2013-06-23 16:29:00,93.7,69.8,29.71,SE,135,1.1,3.6,46,0.00,,---,0.00,VWS V14.01,2013-06-23 20:29:00,
2013-06-23 16:30:00,93.7,69.8,29.71,SE,135,1.3,1.3,46,0.00,,---,0.00,VWS V14.01,2013-06-23 20:30:00,
2013-06-23 16:31:00,93.6,69.7,29.71,SSW,202,1.6,2.5,46,0.00,,---,0.00,VWS V14.01,2013-06-23 20:31:00,
2013-06-23 16:32:00,93.6,69.7,29.71,South,180,1.1,2.0,46,0.00,,---,0.00,VWS V14.01,2013-06-23 20:32:00,
2013-06-23 16:33:00,93.7,70.5,29.71,South,180,0.0,1.1,47,0.00,,---,0.00,VWS V14.01,2013-06-23 20:33:00,
2013-06-23 16:34:00,93.6,69.7,29.71,South,180,1.1,1.6,46,0.00,,---,0.00,VWS V14.01,2013-06-23 20:34:00,
2013-06-23 16:35:00,93.6,69.7,29.71,WSW,248,2.5,2.5,46,0.00,,---,0.00,VWS V14.01,2013-06-23 20:35:00,
2013-06-23 16:36:00,93.4,69.5,29.71,South,180,0.0,2.5,46,0.00,,---,0.00,VWS V14.01,2013-06-23 20:36:00,
2013-06-23 16:37:00,93.4,69.5,29.74,East,90,2.0,2.9,46,0.00,,---,0.00,VWS V14.01,2013-06-23 20:37:00,
2013-06-23 16:38:00,93.0,68.6,29.74,SW,225,2.2,2.7,45,0.00,,---,0.00,VWS V14.01,2013-06-23 20:38:00,
2013-06-23 16:39:00,93.0,69.2,29.74,West,270,1.3,2.2,46,0.00,,---,0.00,VWS V14.01,2013-06-23 20:39:00,
2013-06-23 16:40:00,93.0,69.2,29.74,NE,45,1.3,1.6,46,0.00,,---,0.00,VWS V14.01,2013-06-23 20:40:00,
2013-06-23 16:41:00,92.7,69.5,29.74,SW,225,1.1,2.0,47,0.00,,---,0.00,VWS V14.01,2013-06-23 20:41:00,
2013-06-23 16:42:00,92.5,69.3,29.74,West,270,2.7,2.7,47,0.00,,---,0.00,VWS V14.01,2013-06-23 20:42:00,
2013-06-23 16:43:00,92.5,68.7,29.74,West,270,1.6,2.7,46,0.00,,---,0.00,VWS V14.01,2013-06-23 20:43:00,
2013-06-23 16:44:00,92.5,69.3,29.74,SW,225,1.1,2.5,47,0.00,,---,0.00,VWS V14.01,2013-06-23 20:44:00,
2013-06-23 16:45:00,92.5,68.1,29.74,WSW,248,2.5,4.0,45,0.00,,---,0.00,VWS V14.01,2013-06-23 20:45:00,
2013-06-23 16:46:00,92.3,68.5,29.74,SSE,158,0.0,2.5,46,0.00,,---,0.00,VWS V14.01,2013-06-23 20:46:00,
2013-06-23 16:47:00,92.1,68.4,29.74,East,90,1.1,2.0,46,0.00,,---,0.00,VWS V14.01,2013-06-23 20:47:00,
2013-06-23 16:48:00,92.1,69.0,29.74,WSW,248,2.2,2.2,47,0.00,,---,0.00,VWS V14.01,2013-06-23 20:48:00,
2013-06-23 16:49:00,91.9,68.8,29.74,SW,225,0.0,2.2,47,0.00,,---,0.00,VWS V14.01,2013-06-23 20:49:00,
2013-06-23 16:50:00,91.8,68.7,29.74,SSW,202,1.1,1.6,47,0.00,,---,0.00,VWS V14.01,2013-06-23 20:50:00,
2013-06-23 16:51:00,91.4,68.3,29.74,SSW,202,1.6,1.6,47,0.00,,---,0.00,VWS V14.01,2013-06-23 20:51:00,
2013-06-23 16:52:00,91.2,68.8,29.74,SE,135,2.9,2.9,48,0.00,,---,0.00,VWS V14.01,2013-06-23 20:52:00,
2013-06-23 16:53:00,91.0,68.0,29.74,SW,225,2.2,3.6,47,0.00,,---,0.00,VWS V14.01,2013-06-23 20:53:00,
2013-06-23 16:54:00,90.7,68.3,29.74,SW,225,1.1,2.2,48,0.00,,---,0.00,VWS V14.01,2013-06-23 20:54:00,
2013-06-23 16:55:00,90.7,68.3,29.74,SE,135,1.1,2.0,48,0.00,,---,0.00,VWS V14.01,2013-06-23 20:55:00,
2013-06-23 16:56:00,90.3,68.0,29.74,SSW,202,2.0,2.2,48,0.00,,---,0.00,VWS V14.01,2013-06-23 20:56:00,
2013-06-23 16:57:00,90.3,68.0,29.74,SSW,202,0.9,2.0,48,0.00,,---,0.00,VWS V14.01,2013-06-23 20:57:00,
2013-06-23 16:58:00,89.6,67.3,29.74,SW,225,1.1,1.6,48,0.00,,---,0.00,VWS V14.01,2013-06-23 20:58:00,
2013-06-23 16:59:00,89.4,68.3,29.74,SSW,202,1.1,2.2,50,0.00,,---,0.00,VWS V14.01,2013-06-23 20:59:00,
2013-06-23 17:00:00,89.2,67.6,29.74,SSW,202,0.0,1.1,49,0.00,,---,0.00,VWS V14.01,2013-06-23 21:00:00,
2013-06-23 17:01:00,89.1,68.0,29.74,South,180,0.9,1.6,50,0.00,,---,0.00,VWS V14.01,2013-06-23 21:01:00,
2013-06-23 17:02:00,88.9,68.4,29.74,SW,225,1.3,2.7,51,0.00,,---,0.00,VWS V14.01,2013-06-23 21:02:00,
2013-06-23 17:03:00,88.9,68.4,29.74,SW,225,1.3,1.6,51,0.00,,---,0.00,VWS V14.01,2013-06-23 21:03:00,
2013-06-23 17:04:00,88.7,68.3,29.74,SW,225,1.1,2.5,51,0.00,,---,0.00,VWS V14.01,2013-06-23 21:04:00,
2013-06-23 17:05:00,88.7,68.8,29.74,SW,225,1.3,1.6,52,0.00,,---,0.00,VWS V14.01,2013-06-23 21:05:00,
2013-06-23 17:06:00,88.7,68.8,29.74,SW,225,2.0,2.0,52,0.00,,---,0.00,VWS V14.01,2013-06-23 21:06:00,
2013-06-23 17:07:00,88.5,68.7,29.76,West,270,2.7,2.7,52,0.00,,---,0.00,VWS V14.01,2013-06-23 21:07:00,
2013-06-23 17:08:00,88.5,68.7,29.76,NE,45,3.1,3.6,52,0.00,,---,0.00,VWS V14.01,2013-06-23 21:08:00,
2013-06-23 17:09:00,88.5,68.1,29.76,SE,135,1.3,4.0,51,0.00,,---,0.00,VWS V14.01,2013-06-23 21:09:00,
2013-06-23 17:10:00,88.5,68.7,29.76,South,180,3.6,3.6,52,0.00,,---,0.00,VWS V14.01,2013-06-23 21:10:00,
2013-06-23 17:11:00,88.5,68.7,29.76,South,180,0.9,3.6,52,0.00,,---,0.00,VWS V14.01,2013-06-23 21:11:00,
2013-06-23 17:12:00,88.5,68.7,29.76,SW,225,1.3,1.3,52,0.00,,---,0.00,VWS V14.01,2013-06-23 21:12:00,
2013-06-23 17:13:00,88.5,68.7,29.76,WSW,248,0.9,3.4,52,0.00,,---,0.00,VWS V14.01,2013-06-23 21:13:00,
2013-06-23 17:14:00,88.3,69.1,29.76,SE,135,1.6,1.6,53,0.00,,---,0.00,VWS V14.01,2013-06-23 21:14:00,
2013-06-23 17:15:00,88.3,69.6,29.76,WSW,248,0.9,2.0,54,0.00,,---,0.00,VWS V14.01,2013-06-23 21:15:00,
2013-06-23 17:16:00,88.3,69.6,29.76,WSW,248,0.9,1.3,54,0.00,,---,0.00,VWS V14.01,2013-06-23 21:16:00,
2013-06-23 17:17:00,88.2,69.4,29.76,South,180,1.6,2.0,54,0.00,,---,0.00,VWS V14.01,2013-06-23 21:17:00,
2013-06-23 17:18:00,88.2,70.0,29.76,SSW,202,2.5,2.5,55,0.00,,---,0.00,VWS V14.01,2013-06-23 21:18:00,
2013-06-23 17:19:00,88.2,70.0,29.76,ESE,112,0.9,2.5,55,0.00,,---,0.00,VWS V14.01,2013-06-23 21:19:00,
2013-06-23 17:20:00,88.2,70.0,29.76,West,270,0.0,0.9,55,0.00,,---,0.00,VWS V14.01,2013-06-23 21:20:00,
2013-06-23 17:21:00,88.2,70.0,29.76,West,270,0.9,1.3,55,0.00,,---,0.00,VWS V14.01,2013-06-23 21:21:00,
2013-06-23 17:22:00,88.2,70.0,29.74,West,270,0.0,2.0,55,0.00,,---,0.00,VWS V14.01,2013-06-23 21:22:00,
2013-06-23 17:23:00,88.2,70.5,29.74,SSW,202,0.9,1.3,56,0.00,,---,0.00,VWS V14.01,2013-06-23 21:23:00,
2013-06-23 17:24:00,88.2,70.0,29.74,WSW,248,0.0,1.3,55,0.00,,---,0.00,VWS V14.01,2013-06-23 21:24:00,
2013-06-23 17:25:00,88.0,69.8,29.74,WSW,248,0.9,2.0,55,0.00,,---,0.00,VWS V14.01,2013-06-23 21:25:00,
2013-06-23 17:26:00,88.0,70.3,29.74,WSW,248,0.0,1.6,56,0.00,,---,0.00,VWS V14.01,2013-06-23 21:26:00,
2013-06-23 17:27:00,88.0,70.3,29.74,WSW,248,1.3,1.3,56,0.00,,---,0.00,VWS V14.01,2013-06-23 21:27:00,
2013-06-23 17:28:00,88.0,70.3,29.74,SW,225,1.1,1.6,56,0.00,,---,0.00,VWS V14.01,2013-06-23 21:28:00,
2013-06-23 17:29:00,87.8,70.2,29.74,West,270,1.3,2.9,56,0.00,,---,0.00,VWS V14.01,2013-06-23 21:29:00,
2013-06-23 17:30:00,87.8,70.2,29.74,West,270,0.0,1.3,56,0.00,,---,0.00,VWS V14.01,2013-06-23 21:30:00,
2013-06-23 17:31:00,87.8,70.2,29.74,West,270,0.0,0.0,56,0.00,,---,0.00,VWS V14.01,2013-06-23 21:31:00,
2013-06-23 17:32:00,87.8,70.2,29.74,West,270,0.9,0.9,56,0.00,,---,0.00,VWS V14.01,2013-06-23 21:32:00,
2013-06-23 17:33:00,87.6,70.5,29.74,West,270,0.0,1.1,57,0.00,,---,0.00,VWS V14.01,2013-06-23 21:33:00,
2013-06-23 17:34:00,87.8,70.7,29.74,West,270,0.0,0.9,57,0.00,,---,0.00,VWS V14.01,2013-06-23 21:34:00,
2013-06-23 17:35:00,87.6,70.5,29.74,SW,225,1.3,1.3,57,0.00,,---,0.00,VWS V14.01,2013-06-23 21:35:00,
2013-06-23 17:36:00,87.6,70.5,29.74,SE,135,2.7,2.7,57,0.00,,---,0.00,VWS V14.01,2013-06-23 21:36:00,
2013-06-23 17:37:00,87.3,71.2,29.71,WSW,248,1.1,2.7,59,0.00,,---,0.00,VWS V14.01,2013-06-23 21:37:00,
2013-06-23 17:38:00,87.3,71.2,29.71,North,0,1.1,1.6,59,0.00,,---,0.00,VWS V14.01,2013-06-23 21:38:00,
2013-06-23 17:39:00,87.1,70.5,29.71,SW,225,1.1,1.1,58,0.00,,---,0.00,VWS V14.01,2013-06-23 21:39:00,
2013-06-23 17:40:00,87.1,70.5,29.71,NW,315,3.1,3.1,58,0.00,,---,0.00,VWS V14.01,2013-06-23 21:40:00,
2013-06-23 17:41:00,87.1,70.5,29.71,East,90,1.3,3.1,58,0.00,,---,0.00,VWS V14.01,2013-06-23 21:41:00,
2013-06-23 17:42:00,87.1,70.5,29.71,West,270,1.3,2.0,58,0.00,,---,0.00,VWS V14.01,2013-06-23 21:42:00,
2013-06-23 17:43:00,86.9,70.4,29.71,NW,315,0.0,1.3,58,0.00,,---,0.00,VWS V14.01,2013-06-23 21:43:00,
2013-06-23 17:44:00,86.9,70.4,29.71,SW,225,2.0,2.0,58,0.00,,---,0.00,VWS V14.01,2013-06-23 21:44:00,
2013-06-23 17:45:00,86.5,70.0,29.71,West,270,0.0,2.7,58,0.00,,---,0.00,VWS V14.01,2013-06-23 21:45:00,
2013-06-23 17:46:00,86.4,70.3,29.71,South,180,1.1,1.6,59,0.00,,---,0.00,VWS V14.01,2013-06-23 21:46:00,
2013-06-23 17:47:00,86.4,69.8,29.71,South,180,0.0,3.4,58,0.00,,---,0.00,VWS V14.01,2013-06-23 21:47:00,
2013-06-23 17:48:00,86.4,70.3,29.71,SSW,202,1.6,2.2,59,0.00,,---,0.00,VWS V14.01,2013-06-23 21:48:00,
2013-06-23 17:49:00,86.2,70.2,29.71,SW,225,2.7,3.4,59,0.00,,---,0.00,VWS V14.01,2013-06-23 21:49:00,
2013-06-23 17:50:00,86.0,70.0,29.71,West,270,2.2,3.1,59,0.00,,---,0.00,VWS V14.01,2013-06-23 21:50:00,
2013-06-23 17:51:00,85.8,69.8,29.71,SW,225,1.3,2.2,59,0.00,,---,0.00,VWS V14.01,2013-06-23 21:51:00,
2013-06-23 17:52:00,85.6,69.7,29.71,West,270,1.3,2.7,59,0.00,,---,0.00,VWS V14.01,2013-06-23 21:52:00,
2013-06-23 17:53:00,85.5,69.5,29.71,East,90,1.3,1.3,59,0.00,,---,0.00,VWS V14.01,2013-06-23 21:53:00,
2013-06-23 17:54:00,85.5,69.5,29.71,WSW,248,1.1,2.0,59,0.00,,---,0.00,VWS V14.01,2013-06-23 21:54:00,
2013-06-23 17:55:00,85.3,69.3,29.71,ENE,68,1.3,2.5,59,0.00,,---,0.00,VWS V14.01,2013-06-23 21:55:00,
2013-06-23 17:56:00,85.3,69.3,29.71,WSW,248,1.6,2.0,59,0.00,,---,0.00,VWS V14.01,2013-06-23 21:56:00,
2013-06-23 17:57:00,85.1,69.2,29.71,West,270,1.6,2.5,59,0.00,,---,0.00,VWS V14.01,2013-06-23 21:57:00,
2013-06-23 17:58:00,85.1,69.7,29.71,West,270,1.1,1.6,60,0.00,,---,0.00,VWS V14.01,2013-06-23 21:58:00,
2013-06-23 17:59:00,85.1,69.7,29.71,East,90,3.1,3.1,60,0.00,,---,0.00,VWS V14.01,2013-06-23 21:59:00,
2013-06-23 18:00:00,85.1,69.7,29.71,SW,225,1.3,4.0,60,0.00,,---,0.00,VWS V14.01,2013-06-23 22:00:00,
2013-06-23 18:01:00,85.1,69.2,29.71,SW,225,2.9,2.9,59,0.00,,---,0.00,VWS V14.01,2013-06-23 22:01:00,
2013-06-23 18:02:00,84.9,69.0,29.71,WSW,248,1.1,2.9,59,0.00,,---,0.00,VWS V14.01,2013-06-23 22:02:00,
2013-06-23 18:03:00,85.1,69.2,29.71,SE,135,1.1,2.0,59,0.00,,---,0.00,VWS V14.01,2013-06-23 22:03:00,
2013-06-23 18:04:00,85.1,69.7,29.71,SW,225,0.9,2.0,60,0.00,,---,0.00,VWS V14.01,2013-06-23 22:04:00,
2013-06-23 18:05:00,85.1,69.7,29.71,SW,225,1.6,1.6,60,0.00,,---,0.00,VWS V14.01,2013-06-23 22:05:00,
2013-06-23 18:06:00,85.1,69.7,29.71,SW,225,0.0,1.6,60,0.00,,---,0.00,VWS V14.01,2013-06-23 22:06:00,
2013-06-23 18:07:00,85.1,69.7,29.71,SW,225,1.6,1.6,60,0.00,,---,0.00,VWS V14.01,2013-06-23 22:07:00,
2013-06-23 18:08:00,84.9,69.5,29.71,ENE,68,2.7,2.7,60,0.00,,---,0.00,VWS V14.01,2013-06-23 22:08:00,
2013-06-23 18:09:00,85.1,69.7,29.71,SW,225,0.9,2.7,60,0.00,,---,0.00,VWS V14.01,2013-06-23 22:09:00,
2013-06-23 18:10:00,84.9,69.5,29.71,East,90,2.2,2.5,60,0.00,,---,0.00,VWS V14.01,2013-06-23 22:10:00,
2013-06-23 18:11:00,84.9,69.5,29.71,South,180,0.9,2.2,60,0.00,,---,0.00,VWS V14.01,2013-06-23 22:11:00,
2013-06-23 18:12:00,84.9,69.5,29.71,SW,225,0.9,2.7,60,0.00,,---,0.00,VWS V14.01,2013-06-23 22:12:00,
2013-06-23 18:13:00,84.9,69.5,29.71,SW,225,2.2,2.2,60,0.00,,---,0.00,VWS V14.01,2013-06-23 22:13:00,
2013-06-23 18:14:00,84.7,69.8,29.71,SW,225,1.1,2.2,61,0.00,,---,0.00,VWS V14.01,2013-06-23 22:14:00,
2013-06-23 18:15:00,84.7,69.3,29.71,SW,225,1.3,2.9,60,0.00,,---,0.00,VWS V14.01,2013-06-23 22:15:00,
2013-06-23 18:16:00,84.7,69.3,29.71,SW,225,2.0,2.0,60,0.00,,---,0.00,VWS V14.01,2013-06-23 22:16:00,
2013-06-23 18:17:00,84.7,69.3,29.71,SW,225,1.6,2.0,60,0.00,,---,0.00,VWS V14.01,2013-06-23 22:17:00,
2013-06-23 18:18:00,84.7,69.3,29.71,SW,225,1.6,1.6,60,0.00,,---,0.00,VWS V14.01,2013-06-23 22:18:00,
2013-06-23 18:19:00,84.7,69.3,29.71,SW,225,1.1,1.6,60,0.00,,---,0.00,VWS V14.01,2013-06-23 22:19:00,
2013-06-23 18:20:00,84.7,69.8,29.71,SW,225,1.3,3.6,61,0.00,,---,0.00,VWS V14.01,2013-06-23 22:20:00,
2013-06-23 18:21:00,84.7,69.8,29.71,WSW,248,0.9,1.6,61,0.00,,---,0.00,VWS V14.01,2013-06-23 22:21:00,
2013-06-23 18:22:00,84.7,69.8,29.74,East,90,0.9,1.1,61,0.00,,---,0.00,VWS V14.01,2013-06-23 22:22:00,
2013-06-23 18:23:00,84.6,69.6,29.74,West,270,2.2,2.2,61,0.00,,---,0.00,VWS V14.01,2013-06-23 22:23:00,
2013-06-23 18:24:00,84.6,69.6,29.74,WSW,248,1.6,2.2,61,0.00,,---,0.00,VWS V14.01,2013-06-23 22:24:00,
2013-06-23 18:25:00,84.6,69.6,29.74,WSW,248,2.0,2.0,61,0.00,,---,0.00,VWS V14.01,2013-06-23 22:25:00,
2013-06-23 18:26:00,84.6,69.6,29.74,East,90,2.0,2.0,61,0.00,,---,0.00,VWS V14.01,2013-06-23 22:26:00,
2013-06-23 18:27:00,84.6,69.6,29.74,West,270,1.3,2.2,61,0.00,,---,0.00,VWS V14.01,2013-06-23 22:27:00,
2013-06-23 18:28:00,84.4,69.5,29.74,West,270,1.3,1.3,61,0.00,,---,0.00,VWS V14.01,2013-06-23 22:28:00,
2013-06-23 18:29:00,84.4,69.5,29.74,West,270,1.6,1.6,61,0.00,,---,0.00,VWS V14.01,2013-06-23 22:29:00,
2013-06-23 18:30:00,84.4,69.9,29.74,West,270,0.9,2.0,62,0.00,,---,0.00,VWS V14.01,2013-06-23 22:30:00,
2013-06-23 18:31:00,84.2,69.8,29.74,SW,225,1.6,2.2,62,0.00,,---,0.00,VWS V14.01,2013-06-23 22:31:00,
2013-06-23 18:32:00,84.2,69.3,29.74,SW,225,0.0,1.6,61,0.00,,---,0.00,VWS V14.01,2013-06-23 22:32:00,
2013-06-23 18:33:00,84.4,69.5,29.74,West,270,1.1,1.6,61,0.00,,---,0.00,VWS V14.01,2013-06-23 22:33:00,
2013-06-23 18:34:00,84.4,69.5,29.74,WSW,248,1.6,1.6,61,0.00,,---,0.00,VWS V14.01,2013-06-23 22:34:00,
2013-06-23 18:35:00,84.4,69.5,29.74,WSW,248,1.3,1.6,61,0.00,,---,0.00,VWS V14.01,2013-06-23 22:35:00,
2013-06-23 18:36:00,84.6,69.6,29.74,East,90,1.3,1.3,61,0.00,,---,0.00,VWS V14.01,2013-06-23 22:36:00,
2013-06-23 18:37:00,84.6,69.6,29.74,SW,225,1.3,1.3,61,0.00,,---,0.00,VWS V14.01,2013-06-23 22:37:00,
2013-06-23 18:38:00,84.6,69.2,29.74,SSW,202,2.0,2.9,60,0.00,,---,0.00,VWS V14.01,2013-06-23 22:38:00,
2013-06-23 18:39:00,84.6,69.2,29.74,WSW,248,0.9,2.5,60,0.00,,---,0.00,VWS V14.01,2013-06-23 22:39:00,
2013-06-23 18:40:00,84.6,69.2,29.74,WSW,248,0.9,2.0,60,0.00,,---,0.00,VWS V14.01,2013-06-23 22:40:00,
2013-06-23 18:41:00,84.6,69.2,29.74,NE,45,1.6,1.6,60,0.00,,---,0.00,VWS V14.01,2013-06-23 22:41:00,
2013-06-23 18:42:00,84.7,69.3,29.74,West,270,0.9,1.6,60,0.00,,---,0.00,VWS V14.01,2013-06-23 22:42:00,
2013-06-23 18:43:00,84.7,69.3,29.74,SSW,202,2.9,2.9,60,0.00,,---,0.00,VWS V14.01,2013-06-23 22:43:00,
2013-06-23 18:44:00,84.7,69.3,29.74,East,90,0.0,2.9,60,0.00,,---,0.00,VWS V14.01,2013-06-23 22:44:00,
2013-06-23 18:45:00,84.6,69.2,29.74,SW,225,2.0,2.0,60,0.00,,---,0.00,VWS V14.01,2013-06-23 22:45:00,
2013-06-23 18:46:00,84.6,69.6,29.74,East,90,2.0,2.0,61,0.00,,---,0.00,VWS V14.01,2013-06-23 22:46:00,
2013-06-23 18:47:00,84.6,69.2,29.74,West,270,1.1,2.5,60,0.00,,---,0.00,VWS V14.01,2013-06-23 22:47:00,
2013-06-23 18:48:00,84.6,69.2,29.74,SW,225,2.0,2.2,60,0.00,,---,0.00,VWS V14.01,2013-06-23 22:48:00,
2013-06-23 18:49:00,84.6,69.6,29.74,West,270,2.5,2.5,61,0.00,,---,0.00,VWS V14.01,2013-06-23 22:49:00,
2013-06-23 18:50:00,84.6,69.6,29.74,West,270,1.6,2.5,61,0.00,,---,0.00,VWS V14.01,2013-06-23 22:50:00,
2013-06-23 18:51:00,84.4,69.5,29.74,SW,225,1.6,1.6,61,0.00,,---,0.00,VWS V14.01,2013-06-23 22:51:00,
2013-06-23 18:52:00,84.4,69.5,29.74,ESE,112,2.2,2.2,61,0.00,,---,0.00,VWS V14.01,2013-06-23 22:52:00,
2013-06-23 18:53:00,84.2,68.8,29.74,NW,315,1.1,2.2,60,0.00,,---,0.00,VWS V14.01,2013-06-23 22:53:00,
2013-06-23 18:54:00,84.2,68.8,29.74,SW,225,1.1,2.0,60,0.00,,---,0.00,VWS V14.01,2013-06-23 22:54:00,
2013-06-23 18:55:00,84.2,68.8,29.74,SW,225,1.6,2.0,60,0.00,,---,0.00,VWS V14.01,2013-06-23 22:55:00,
2013-06-23 18:56:00,84.2,68.8,29.74,South,180,1.1,1.6,60,0.00,,---,0.00,VWS V14.01,2013-06-23 22:56:00,
2013-06-23 18:57:00,84.0,69.1,29.74,SW,225,0.9,1.6,61,0.00,,---,0.00,VWS V14.01,2013-06-23 22:57:00,
2013-06-23 18:58:00,84.0,69.1,29.74,South,180,2.7,3.1,61,0.00,,---,0.00,VWS V14.01,2013-06-23 22:58:00,
2013-06-23 18:59:00,83.8,69.0,29.74,SW,225,1.6,3.6,61,0.00,,---,0.00,VWS V14.01,2013-06-23 22:59:00,
2013-06-23 19:00:00,83.8,69.0,29.74,SW,225,0.0,1.6,61,0.00,,---,0.00,VWS V14.01,2013-06-23 23:00:00,
2013-06-23 19:01:00,83.8,69.0,29.74,SW,225,1.6,1.6,61,0.00,,---,0.00,VWS V14.01,2013-06-23 23:01:00,
2013-06-23 19:02:00,83.8,69.4,29.74,SW,225,0.9,2.0,62,0.00,,---,0.00,VWS V14.01,2013-06-23 23:02:00,
2013-06-23 19:03:00,83.7,69.3,29.74,SW,225,2.2,2.2,62,0.00,,---,0.00,VWS V14.01,2013-06-23 23:03:00,
2013-06-23 19:04:00,83.7,69.3,29.74,West,270,1.3,2.2,62,0.00,,---,0.00,VWS V14.01,2013-06-23 23:04:00,
2013-06-23 19:05:00,83.5,69.1,29.74,West,270,2.0,2.0,62,0.00,,---,0.00,VWS V14.01,2013-06-23 23:05:00,
2013-06-23 19:06:00,83.5,69.1,29.74,SW,225,1.1,2.0,62,0.00,,---,0.00,VWS V14.01,2013-06-23 23:06:00,
2013-06-23 19:07:00,83.3,69.4,29.74,SW,225,1.6,1.6,63,0.00,,---,0.00,VWS V14.01,2013-06-23 23:07:00,
2013-06-23 19:08:00,83.3,69.4,29.74,WSW,248,0.0,1.6,63,0.00,,---,0.00,VWS V14.01,2013-06-23 23:08:00,
2013-06-23 19:09:00,83.1,69.2,29.74,WSW,248,0.0,1.6,63,0.00,,---,0.00,VWS V14.01,2013-06-23 23:09:00,
2013-06-23 19:10:00,83.1,69.2,29.74,WSW,248,0.9,1.1,63,0.00,,---,0.00,VWS V14.01,2013-06-23 23:10:00,
2013-06-23 19:11:00,82.9,69.1,29.74,WSW,248,1.3,1.3,63,0.00,,---,0.00,VWS V14.01,2013-06-23 23:11:00,
2013-06-23 19:12:00,82.9,69.1,29.74,WSW,248,0.0,1.3,63,0.00,,---,0.00,VWS V14.01,2013-06-23 23:12:00,
2013-06-23 19:13:00,82.9,69.1,29.74,WSW,248,1.3,1.3,63,0.00,,---,0.00,VWS V14.01,2013-06-23 23:13:00,
2013-06-23 19:14:00,82.8,68.9,29.74,WSW,248,0.9,1.3,63,0.00,,---,0.00,VWS V14.01,2013-06-23 23:14:00,
2013-06-23 19:15:00,82.6,69.2,29.74,WSW,248,0.0,1.6,64,0.00,,---,0.00,VWS V14.01,2013-06-23 23:15:00,
2013-06-23 19:16:00,82.6,69.2,29.74,WSW,248,0.0,1.1,64,0.00,,---,0.00,VWS V14.01,2013-06-23 23:16:00,
2013-06-23 19:17:00,82.6,69.2,29.74,West,270,1.3,1.3,64,0.00,,---,0.00,VWS V14.01,2013-06-23 23:17:00,
2013-06-23 19:18:00,82.4,69.0,29.74,West,270,1.1,2.2,64,0.00,,---,0.00,VWS V14.01,2013-06-23 23:18:00,
2013-06-23 19:19:00,82.4,69.0,29.74,East,90,1.6,2.7,64,0.00,,---,0.00,VWS V14.01,2013-06-23 23:19:00,
2013-06-23 19:20:00,82.4,69.5,29.74,West,270,2.0,2.0,65,0.00,,---,0.00,VWS V14.01,2013-06-23 23:20:00,
2013-06-23 19:21:00,82.2,69.3,29.74,West,270,1.3,2.0,65,0.00,,---,0.00,VWS V14.01,2013-06-23 23:21:00,
2013-06-23 19:22:00,82.2,69.3,29.74,West,270,0.9,2.0,65,0.00,,---,0.00,VWS V14.01,2013-06-23 23:22:00,
2013-06-23 19:23:00,82.0,69.1,29.74,SW,225,2.0,2.0,65,0.00,,---,0.00,VWS V14.01,2013-06-23 23:23:00,
2013-06-23 19:24:00,82.0,69.1,29.74,SW,225,0.9,2.0,65,0.00,,---,0.00,VWS V14.01,2013-06-23 23:24:00,
2013-06-23 19:25:00,82.0,69.1,29.74,SW,225,1.3,1.6,65,0.00,,---,0.00,VWS V14.01,2013-06-23 23:25:00,
2013-06-23 19:26:00,81.9,68.9,29.74,SW,225,2.2,2.2,65,0.00,,---,0.00,VWS V14.01,2013-06-23 23:26:00,
2013-06-23 19:27:00,81.9,69.4,29.74,SW,225,1.1,2.2,66,0.00,,---,0.00,VWS V14.01,2013-06-23 23:27:00,
2013-06-23 19:28:00,81.9,69.4,29.74,SW,225,0.9,2.2,66,0.00,,---,0.00,VWS V14.01,2013-06-23 23:28:00,
2013-06-23 19:29:00,81.7,69.2,29.74,WSW,248,1.1,2.5,66,0.00,,---,0.00,VWS V14.01,2013-06-23 23:29:00,
2013-06-23 19:30:00,81.7,69.2,29.74,WSW,248,0.9,1.1,66,0.00,,---,0.00,VWS V14.01,2013-06-23 23:30:00,
2013-06-23 19:31:00,81.7,69.2,29.74,West,270,0.9,1.6,66,0.00,,---,0.00,VWS V14.01,2013-06-23 23:31:00,
2013-06-23 19:32:00,81.5,69.1,29.74,West,270,0.9,1.1,66,0.00,,---,0.00,VWS V14.01,2013-06-23 23:32:00,
2013-06-23 19:33:00,81.5,69.1,29.74,East,90,1.6,2.0,66,0.00,,---,0.00,VWS V14.01,2013-06-23 23:33:00,
2013-06-23 19:34:00,81.5,69.1,29.74,NW,315,0.0,1.6,66,0.00,,---,0.00,VWS V14.01,2013-06-23 23:34:00,
2013-06-23 19:35:00,81.5,69.1,29.74,West,270,1.3,2.0,66,0.00,,---,0.00,VWS V14.01,2013-06-23 23:35:00,
2013-06-23 19:36:00,81.3,68.9,29.74,West,270,2.0,2.0,66,0.00,,---,0.00,VWS V14.01,2013-06-23 23:36:00,
2013-06-23 19:37:00,81.3,68.9,29.74,West,270,0.0,2.0,66,0.00,,---,0.00,VWS V14.01,2013-06-23 23:37:00,
2013-06-23 19:38:00,81.3,68.9,29.74,West,270,1.6,1.6,66,0.00,,---,0.00,VWS V14.01,2013-06-23 23:38:00,
2013-06-23 19:39:00,81.3,68.9,29.74,West,270,0.9,2.0,66,0.00,,---,0.00,VWS V14.01,2013-06-23 23:39:00,
2013-06-23 19:40:00,81.3,68.9,29.74,West,270,2.2,2.2,66,0.00,,---,0.00,VWS V14.01,2013-06-23 23:40:00,
2013-06-23 19:41:00,81.1,68.7,29.74,West,270,1.6,2.2,66,0.00,,---,0.00,VWS V14.01,2013-06-23 23:41:00,
2013-06-23 19:42:00,81.1,69.2,29.74,West,270,1.6,1.6,67,0.00,,---,0.00,VWS V14.01,2013-06-23 23:42:00,
2013-06-23 19:43:00,81.1,68.7,29.74,West,270,1.1,1.6,66,0.00,,---,0.00,VWS V14.01,2013-06-23 23:43:00,
2013-06-23 19:44:00,81.0,68.5,29.74,West,270,1.1,1.6,66,0.00,,---,0.00,VWS V14.01,2013-06-23 23:44:00,
2013-06-23 19:45:00,81.0,68.5,29.74,West,270,0.0,2.2,66,0.00,,---,0.00,VWS V14.01,2013-06-23 23:45:00,
2013-06-23 19:46:00,81.0,68.5,29.74,West,270,1.1,2.7,66,0.00,,---,0.00,VWS V14.01,2013-06-23 23:46:00,
2013-06-23 19:47:00,80.8,68.4,29.74,West,270,0.0,1.3,66,0.00,,---,0.00,VWS V14.01,2013-06-23 23:47:00,
2013-06-23 19:48:00,80.8,68.4,29.74,West,270,1.1,2.0,66,0.00,,---,0.00,VWS V14.01,2013-06-23 23:48:00,
2013-06-23 19:49:00,80.8,68.4,29.74,WSW,248,2.2,2.2,66,0.00,,---,0.00,VWS V14.01,2013-06-23 23:49:00,
2013-06-23 19:50:00,80.8,68.4,29.74,SW,225,2.2,2.5,66,0.00,,---,0.00,VWS V14.01,2013-06-23 23:50:00,
2013-06-23 19:51:00,80.8,68.4,29.74,SW,225,1.1,2.2,66,0.00,,---,0.00,VWS V14.01,2013-06-23 23:51:00,
2013-06-23 19:52:00,80.8,67.9,29.74,SW,225,2.0,2.0,65,0.00,,---,0.00,VWS V14.01,2013-06-23 23:52:00,
2013-06-23 19:53:00,80.8,67.9,29.74,WSW,248,1.3,2.0,65,0.00,,---,0.00,VWS V14.01,2013-06-23 23:53:00,
2013-06-23 19:54:00,80.8,68.4,29.74,WSW,248,0.9,1.6,66,0.00,,---,0.00,VWS V14.01,2013-06-23 23:54:00,
2013-06-23 19:55:00,80.6,67.8,29.74,WSW,248,2.0,2.0,65,0.00,,---,0.00,VWS V14.01,2013-06-23 23:55:00,
2013-06-23 19:56:00,80.6,67.8,29.74,WSW,248,0.9,2.0,65,0.00,,---,0.00,VWS V14.01,2013-06-23 23:56:00,
2013-06-23 19:57:00,80.6,67.8,29.74,SW,225,1.3,2.7,65,0.00,,---,0.00,VWS V14.01,2013-06-23 23:57:00,
2013-06-23 19:58:00,80.4,68.0,29.74,SW,225,1.3,1.3,66,0.00,,---,0.00,VWS V14.01,2013-06-23 23:58:00,
2013-06-23 19:59:00,80.4,68.0,29.74,West,270,2.2,2.9,66,0.00,,---,0.00,VWS V14.01,2013-06-23 23:59:00,
2013-06-23 20:00:00,80.4,67.6,29.74,West,270,1.6,2.2,65,0.00,,---,0.00,VWS V14.01,2013-06-24 00:00:00,
2013-06-23 20:01:00,80.4,67.6,29.74,West,270,3.8,3.8,65,0.00,,---,0.00,VWS V14.01,2013-06-24 00:01:00,
2013-06-23 20:02:00,80.4,67.6,29.74,West,270,0.9,3.8,65,0.00,,---,0.00,VWS V14.01,2013-06-24 00:02:00,
2013-06-23 20:03:00,80.4,67.6,29.74,East,90,1.6,1.6,65,0.00,,---,0.00,VWS V14.01,2013-06-24 00:03:00,
2013-06-23 20:04:00,80.2,67.4,29.74,West,270,1.1,1.6,65,0.00,,---,0.00,VWS V14.01,2013-06-24 00:04:00,
2013-06-23 20:05:00,80.2,67.4,29.74,South,180,1.3,2.7,65,0.00,,---,0.00,VWS V14.01,2013-06-24 00:05:00,
2013-06-23 20:06:00,80.2,67.9,29.74,South,180,2.0,2.0,66,0.00,,---,0.00,VWS V14.01,2013-06-24 00:06:00,
2013-06-23 20:07:00,80.2,67.4,29.76,SW,225,0.0,2.0,65,0.00,,---,0.00,VWS V14.01,2013-06-24 00:07:00,
2013-06-23 20:08:00,80.1,67.7,29.76,SW,225,1.6,2.2,66,0.00,,---,0.00,VWS V14.01,2013-06-24 00:08:00,
2013-06-23 20:09:00,80.1,67.7,29.76,SW,225,1.6,1.6,66,0.00,,---,0.00,VWS V14.01,2013-06-24 00:09:00,
2013-06-23 20:10:00,80.1,67.7,29.76,SW,225,1.1,2.0,66,0.00,,---,0.00,VWS V14.01,2013-06-24 00:10:00,
2013-06-23 20:11:00,80.1,67.7,29.76,SW,225,2.5,2.5,66,0.00,,---,0.00,VWS V14.01,2013-06-24 00:11:00,
2013-06-23 20:12:00,79.9,67.5,29.76,SW,225,1.3,2.5,66,0.00,,---,0.00,VWS V14.01,2013-06-24 00:12:00,
2013-06-23 20:13:00,79.9,67.5,29.76,WSW,248,2.0,2.0,66,0.00,,---,0.00,VWS V14.01,2013-06-24 00:13:00,
2013-06-23 20:14:00,79.9,67.5,29.76,WSW,248,0.0,2.7,66,0.00,,---,0.00,VWS V14.01,2013-06-24 00:14:00,
2013-06-23 20:15:00,79.7,67.3,29.76,WSW,248,1.1,1.6,66,0.00,,---,0.00,VWS V14.01,2013-06-24 00:15:00,
2013-06-23 20:16:00,79.7,67.3,29.76,West,270,1.1,2.0,66,0.00,,---,0.00,VWS V14.01,2013-06-24 00:16:00,
2013-06-23 20:17:00,79.7,67.3,29.76,WSW,248,1.6,1.6,66,0.00,,---,0.00,VWS V14.01,2013-06-24 00:17:00,
2013-06-23 20:18:00,79.7,67.3,29.76,WSW,248,2.2,2.2,66,0.00,,---,0.00,VWS V14.01,2013-06-24 00:18:00,
2013-06-23 20:19:00,79.5,67.2,29.76,WSW,248,1.3,2.2,66,0.00,,---,0.00,VWS V14.01,2013-06-24 00:19:00,
2013-06-23 20:20:00,79.5,67.2,29.76,WSW,248,1.3,2.2,66,0.00,,---,0.00,VWS V14.01,2013-06-24 00:20:00,
2013-06-23 20:21:00,79.5,67.2,29.76,WSW,248,1.1,1.3,66,0.00,,---,0.00,VWS V14.01,2013-06-24 00:21:00,
2013-06-23 20:22:00,79.5,67.2,29.71,WSW,248,0.0,1.6,66,0.00,,---,0.00,VWS V14.01,2013-06-24 00:22:00,
2013-06-23 20:23:00,79.3,67.0,29.71,WSW,248,1.3,1.6,66,0.00,,---,0.00,VWS V14.01,2013-06-24 00:23:00,
2013-06-23 20:24:00,79.3,67.0,29.71,WSW,248,2.0,2.0,66,0.00,,---,0.00,VWS V14.01,2013-06-24 00:24:00,
2013-06-23 20:25:00,79.3,67.4,29.71,West,270,0.9,2.2,67,0.00,,---,0.00,VWS V14.01,2013-06-24 00:25:00,
2013-06-23 20:26:00,79.3,67.4,29.71,West,270,0.9,1.3,67,0.00,,---,0.00,VWS V14.01,2013-06-24 00:26:00,
2013-06-23 20:27:00,79.2,67.3,29.71,West,270,0.0,2.0,67,0.00,,---,0.00,VWS V14.01,2013-06-24 00:27:00,
2013-06-23 20:28:00,79.2,67.3,29.71,WSW,248,0.9,1.1,67,0.00,,---,0.00,VWS V14.01,2013-06-24 00:28:00,
2013-06-23 20:29:00,79.2,67.3,29.71,West,270,0.9,2.0,67,0.00,,---,0.00,VWS V14.01,2013-06-24 00:29:00,
2013-06-23 20:30:00,79.0,67.1,29.71,West,270,0.0,0.9,67,0.00,,---,0.00,VWS V14.01,2013-06-24 00:30:00,
2013-06-23 20:31:00,79.0,67.1,29.71,West,270,0.0,1.6,67,0.00,,---,0.00,VWS V14.01,2013-06-24 00:31:00,
2013-06-23 20:32:00,79.0,67.1,29.71,NE,45,2.5,2.5,67,0.00,,---,0.00,VWS V14.01,2013-06-24 00:32:00,
2013-06-23 20:33:00,79.0,67.1,29.71,West,270,1.3,2.7,67,0.00,,---,0.00,VWS V14.01,2013-06-24 00:33:00,
2013-06-23 20:34:00,79.0,67.1,29.71,West,270,0.9,1.3,67,0.00,,---,0.00,VWS V14.01,2013-06-24 00:34:00,
2013-06-23 20:35:00,79.0,67.1,29.71,WSW,248,1.6,1.6,67,0.00,,---,0.00,VWS V14.01,2013-06-24 00:35:00,
2013-06-23 20:36:00,79.0,67.1,29.71,WSW,248,1.3,1.6,67,0.00,,---,0.00,VWS V14.01,2013-06-24 00:36:00,
2013-06-23 20:37:00,79.0,67.1,29.74,South,180,2.0,2.0,67,0.00,,---,0.00,VWS V14.01,2013-06-24 00:37:00,
2013-06-23 20:38:00,79.0,67.1,29.74,SW,225,0.0,2.0,67,0.00,,---,0.00,VWS V14.01,2013-06-24 00:38:00,
2013-06-23 20:39:00,79.0,67.1,29.74,SW,225,1.1,1.3,67,0.00,,---,0.00,VWS V14.01,2013-06-24 00:39:00,
2013-06-23 20:40:00,79.0,67.1,29.74,SW,225,0.0,1.1,67,0.00,,---,0.00,VWS V14.01,2013-06-24 00:40:00,
2013-06-23 20:41:00,79.0,67.1,29.74,SW,225,0.0,0.0,67,0.00,,---,0.00,VWS V14.01,2013-06-24 00:41:00,
2013-06-23 20:42:00,79.0,67.1,29.74,SW,225,0.0,1.1,67,0.00,,---,0.00,VWS V14.01,2013-06-24 00:42:00,
2013-06-23 20:43:00,78.8,66.9,29.74,SW,225,0.0,1.1,67,0.00,,---,0.00,VWS V14.01,2013-06-24 00:43:00,
2013-06-23 20:44:00,78.8,66.9,29.74,SW,225,0.0,0.9,67,0.00,,---,0.00,VWS V14.01,2013-06-24 00:44:00,
2013-06-23 20:45:00,78.8,66.9,29.74,SW,225,0.9,1.1,67,0.00,,---,0.00,VWS V14.01,2013-06-24 00:45:00,
2013-06-23 20:46:00,78.8,66.9,29.74,South,180,0.0,1.3,67,0.00,,---,0.00,VWS V14.01,2013-06-24 00:46:00,
2013-06-23 20:47:00,78.8,66.9,29.74,SW,225,0.0,1.3,67,0.00,,---,0.00,VWS V14.01,2013-06-24 00:47:00,
2013-06-23 20:48:00,78.6,67.2,29.74,SW,225,0.0,0.0,68,0.00,,---,0.00,VWS V14.01,2013-06-24 00:48:00,
2013-06-23 20:49:00,78.6,67.2,29.74,WSW,248,1.1,1.1,68,0.00,,---,0.00,VWS V14.01,2013-06-24 00:49:00,
2013-06-23 20:50:00,78.6,67.2,29.74,East,90,1.3,1.3,68,0.00,,---,0.00,VWS V14.01,2013-06-24 00:50:00,
2013-06-23 20:51:00,78.6,67.2,29.74,SSW,202,0.0,2.0,68,0.00,,---,0.00,VWS V14.01,2013-06-24 00:51:00,
2013-06-23 20:52:00,78.6,67.2,29.76,South,180,0.0,0.0,68,0.00,,---,0.00,VWS V14.01,2013-06-24 00:52:00,
2013-06-23 20:53:00,78.4,67.0,29.76,West,270,1.6,2.0,68,0.00,,---,0.00,VWS V14.01,2013-06-24 00:53:00,
2013-06-23 20:54:00,78.4,67.0,29.76,West,270,0.9,1.6,68,0.00,,---,0.00,VWS V14.01,2013-06-24 00:54:00,
2013-06-23 20:55:00,78.4,67.0,29.76,West,270,1.3,1.3,68,0.00,,---,0.00,VWS V14.01,2013-06-24 00:55:00,
2013-06-23 20:56:00,78.4,67.0,29.76,West,270,0.0,1.3,68,0.00,,---,0.00,VWS V14.01,2013-06-24 00:56:00,
2013-06-23 20:57:00,78.3,66.8,29.76,West,270,0.9,2.0,68,0.00,,---,0.00,VWS V14.01,2013-06-24 00:57:00,
2013-06-23 20:58:00,78.3,66.8,29.76,West,270,0.0,1.1,68,0.00,,---,0.00,VWS V14.01,2013-06-24 00:58:00,
2013-06-23 20:59:00,78.3,66.8,29.76,West,270,0.0,0.0,68,0.00,,---,0.00,VWS V14.01,2013-06-24 00:59:00,
2013-06-23 21:00:00,78.3,66.8,29.76,West,270,0.0,1.1,68,0.00,,---,0.00,VWS V14.01,2013-06-24 01:00:00,
2013-06-23 21:01:00,78.1,66.7,29.76,West,270,1.3,1.3,68,0.00,,---,0.00,VWS V14.01,2013-06-24 01:01:00,
2013-06-23 21:02:00,78.1,66.7,29.76,West,270,0.0,1.3,68,0.00,,---,0.00,VWS V14.01,2013-06-24 01:02:00,
2013-06-23 21:03:00,78.1,66.7,29.76,West,270,0.0,0.0,68,0.00,,---,0.00,VWS V14.01,2013-06-24 01:03:00,
2013-06-23 21:04:00,78.1,66.7,29.76,West,270,0.0,0.0,68,0.00,,---,0.00,VWS V14.01,2013-06-24 01:04:00,
2013-06-23 21:05:00,77.9,66.5,29.76,West,270,0.0,0.9,68,0.00,,---,0.00,VWS V14.01,2013-06-24 01:05:00,
2013-06-23 21:06:00,77.9,66.5,29.76,West,270,1.1,1.3,68,0.00,,---,0.00,VWS V14.01,2013-06-24 01:06:00,
2013-06-23 21:07:00,77.9,66.5,29.79,West,270,0.9,1.6,68,0.00,,---,0.00,VWS V14.01,2013-06-24 01:07:00,
2013-06-23 21:08:00,77.7,66.3,29.79,West,270,1.1,1.3,68,0.00,,---,0.00,VWS V14.01,2013-06-24 01:08:00,
2013-06-23 21:09:00,77.7,66.8,29.79,West,270,2.0,2.0,69,0.00,,---,0.00,VWS V14.01,2013-06-24 01:09:00,
2013-06-23 21:10:00,77.7,66.8,29.79,West,270,0.0,2.0,69,0.00,,---,0.00,VWS V14.01,2013-06-24 01:10:00,
2013-06-23 21:11:00,77.7,66.8,29.79,SW,225,0.0,0.9,69,0.00,,---,0.00,VWS V14.01,2013-06-24 01:11:00,
2013-06-23 21:12:00,77.5,66.6,29.79,SSW,202,0.9,1.1,69,0.00,,---,0.00,VWS V14.01,2013-06-24 01:12:00,
2013-06-23 21:13:00,77.5,66.6,29.79,SSW,202,1.6,1.6,69,0.00,,---,0.00,VWS V14.01,2013-06-24 01:13:00,
2013-06-23 21:14:00,77.5,66.6,29.79,SSW,202,0.0,1.6,69,0.00,,---,0.00,VWS V14.01,2013-06-24 01:14:00,
2013-06-23 21:15:00,77.5,66.6,29.79,SSW,202,1.1,1.1,69,0.00,,---,0.00,VWS V14.01,2013-06-24 01:15:00,
2013-06-23 21:16:00,77.5,66.6,29.79,SSW,202,1.1,1.3,69,0.00,,---,0.00,VWS V14.01,2013-06-24 01:16:00,
2013-06-23 21:17:00,77.4,66.4,29.79,SSW,202,0.0,1.1,69,0.00,,---,0.00,VWS V14.01,2013-06-24 01:17:00,
2013-06-23 21:18:00,77.4,66.4,29.79,SSW,202,0.9,1.1,69,0.00,,---,0.00,VWS V14.01,2013-06-24 01:18:00,
2013-06-23 21:19:00,77.4,66.4,29.79,SW,225,1.6,1.6,69,0.00,,---,0.00,VWS V14.01,2013-06-24 01:19:00,
2013-06-23 21:20:00,77.4,66.4,29.79,South,180,0.0,1.6,69,0.00,,---,0.00,VWS V14.01,2013-06-24 01:20:00,
2013-06-23 21:21:00,77.4,66.4,29.79,SW,225,0.9,1.1,69,0.00,,---,0.00,VWS V14.01,2013-06-24 01:21:00,
2013-06-23 21:22:00,77.4,66.4,29.79,SW,225,0.0,1.3,69,0.00,,---,0.00,VWS V14.01,2013-06-24 01:22:00,
2013-06-23 21:23:00,77.4,66.4,29.79,SW,225,0.9,1.1,69,0.00,,---,0.00,VWS V14.01,2013-06-24 01:23:00,
2013-06-23 21:24:00,77.2,66.2,29.79,SE,135,0.9,1.3,69,0.00,,---,0.00,VWS V14.01,2013-06-24 01:24:00,
2013-06-23 21:25:00,77.2,66.2,29.79,WSW,248,1.1,1.1,69,0.00,,---,0.00,VWS V14.01,2013-06-24 01:25:00,
2013-06-23 21:26:00,77.2,66.2,29.79,WSW,248,1.6,1.6,69,0.00,,---,0.00,VWS V14.01,2013-06-24 01:26:00,
2013-06-23 21:27:00,77.2,66.2,29.79,East,90,1.6,1.6,69,0.00,,---,0.00,VWS V14.01,2013-06-24 01:27:00,
2013-06-23 21:28:00,77.2,66.7,29.79,SE,135,0.0,2.2,70,0.00,,---,0.00,VWS V14.01,2013-06-24 01:28:00,
2013-06-23 21:29:00,77.2,66.7,29.79,SSE,158,0.0,1.1,70,0.00,,---,0.00,VWS V14.01,2013-06-24 01:29:00,
2013-06-23 21:30:00,77.2,66.7,29.79,SW,225,0.0,0.9,70,0.00,,---,0.00,VWS V14.01,2013-06-24 01:30:00,
2013-06-23 21:31:00,77.0,66.5,29.79,SW,225,0.0,0.9,70,0.00,,---,0.00,VWS V14.01,2013-06-24 01:31:00,
2013-06-23 21:32:00,77.0,66.5,29.79,SW,225,0.0,0.0,70,0.00,,---,0.00,VWS V14.01,2013-06-24 01:32:00,
2013-06-23 21:33:00,77.0,66.5,29.79,East,90,0.0,0.0,70,0.00,,---,0.00,VWS V14.01,2013-06-24 01:33:00,
2013-06-23 21:34:00,77.0,66.5,29.79,West,270,1.3,2.2,70,0.00,,---,0.00,VWS V14.01,2013-06-24 01:34:00,
2013-06-23 21:35:00,77.2,66.7,29.79,West,270,0.0,1.3,70,0.00,,---,0.00,VWS V14.01,2013-06-24 01:35:00,
2013-06-23 21:36:00,77.2,66.7,29.79,West,270,0.0,0.9,70,0.00,,---,0.00,VWS V14.01,2013-06-24 01:36:00,
2013-06-23 21:37:00,77.2,66.7,29.79,West,270,0.0,0.0,70,0.00,,---,0.00,VWS V14.01,2013-06-24 01:37:00,
2013-06-23 21:38:00,77.0,66.5,29.79,West,270,0.0,0.0,70,0.00,,---,0.00,VWS V14.01,2013-06-24 01:38:00,
2013-06-23 21:39:00,77.0,66.5,29.79,West,270,1.1,1.1,70,0.00,,---,0.00,VWS V14.01,2013-06-24 01:39:00,
2013-06-23 21:40:00,77.0,66.5,29.79,West,270,0.0,1.1,70,0.00,,---,0.00,VWS V14.01,2013-06-24 01:40:00,
2013-06-23 21:41:00,77.0,66.5,29.79,West,270,0.0,1.3,70,0.00,,---,0.00,VWS V14.01,2013-06-24 01:41:00,
2013-06-23 21:42:00,77.0,66.5,29.79,West,270,0.0,0.0,70,0.00,,---,0.00,VWS V14.01,2013-06-24 01:42:00,
2013-06-23 21:43:00,77.0,66.5,29.79,West,270,0.0,0.0,70,0.00,,---,0.00,VWS V14.01,2013-06-24 01:43:00,
2013-06-23 21:44:00,77.0,66.5,29.79,West,270,0.0,0.0,70,0.00,,---,0.00,VWS V14.01,2013-06-24 01:44:00,
2013-06-23 21:45:00,76.8,66.3,29.79,West,270,1.3,1.3,70,0.00,,---,0.00,VWS V14.01,2013-06-24 01:45:00,
2013-06-23 21:46:00,76.8,66.3,29.79,West,270,0.0,1.3,70,0.00,,---,0.00,VWS V14.01,2013-06-24 01:46:00,
2013-06-23 21:47:00,76.8,66.7,29.79,West,270,0.0,0.0,71,0.00,,---,0.00,VWS V14.01,2013-06-24 01:47:00,
2013-06-23 21:48:00,76.8,66.7,29.79,West,270,1.3,1.3,71,0.00,,---,0.00,VWS V14.01,2013-06-24 01:48:00,
2013-06-23 21:49:00,76.8,66.7,29.79,North,0,0.9,1.3,71,0.00,,---,0.00,VWS V14.01,2013-06-24 01:49:00,
2013-06-23 21:50:00,76.8,66.7,29.79,North,0,0.0,1.1,71,0.00,,---,0.00,VWS V14.01,2013-06-24 01:50:00,
2013-06-23 21:51:00,76.6,66.5,29.79,North,0,1.1,1.1,71,0.00,,---,0.00,VWS V14.01,2013-06-24 01:51:00,
2013-06-23 21:52:00,76.6,66.5,29.79,North,0,1.1,1.1,71,0.00,,---,0.00,VWS V14.01,2013-06-24 01:52:00,
2013-06-23 21:53:00,76.6,66.5,29.79,North,0,0.0,1.1,71,0.00,,---,0.00,VWS V14.01,2013-06-24 01:53:00,
2013-06-23 21:54:00,76.6,66.5,29.79,North,0,0.0,0.9,71,0.00,,---,0.00,VWS V14.01,2013-06-24 01:54:00,
2013-06-23 21:55:00,76.6,66.5,29.79,North,0,0.0,0.0,71,0.00,,---,0.00,VWS V14.01,2013-06-24 01:55:00,
2013-06-23 21:56:00,76.6,66.5,29.79,SW,225,0.0,2.2,71,0.00,,---,0.00,VWS V14.01,2013-06-24 01:56:00,
2013-06-23 21:57:00,76.6,66.5,29.79,SW,225,0.0,0.9,71,0.00,,---,0.00,VWS V14.01,2013-06-24 01:57:00,
2013-06-23 21:58:00,76.6,66.9,29.79,SE,135,1.1,2.7,72,0.00,,---,0.00,VWS V14.01,2013-06-24 01:58:00,
2013-06-23 21:59:00,76.6,66.9,29.79,SW,225,0.0,1.3,72,0.00,,---,0.00,VWS V14.01,2013-06-24 01:59:00,
2013-06-23 22:00:00,76.6,66.9,29.79,SW,225,0.0,1.1,72,0.00,,---,0.00,VWS V14.01,2013-06-24 02:00:00,
2013-06-23 22:01:00,76.6,66.9,29.79,SW,225,0.0,0.0,72,0.00,,---,0.00,VWS V14.01,2013-06-24 02:01:00,
2013-06-23 22:02:00,76.6,66.9,29.79,South,180,0.0,0.0,72,0.00,,---,0.00,VWS V14.01,2013-06-24 02:02:00,
2013-06-23 22:03:00,76.6,66.9,29.79,South,180,0.0,0.0,72,0.00,,---,0.00,VWS V14.01,2013-06-24 02:03:00,
2013-06-23 22:04:00,76.6,66.9,29.79,SE,135,0.0,0.9,72,0.00,,---,0.00,VWS V14.01,2013-06-24 02:04:00,
2013-06-23 22:05:00,76.6,66.9,29.79,SE,135,0.0,0.0,72,0.00,,---,0.00,VWS V14.01,2013-06-24 02:05:00,
2013-06-23 22:06:00,76.6,66.9,29.79,SE,135,0.0,0.0,72,0.00,,---,0.00,VWS V14.01,2013-06-24 02:06:00,
2013-06-23 22:07:00,76.6,66.9,29.79,SE,135,0.0,0.0,72,0.00,,---,0.00,VWS V14.01,2013-06-24 02:07:00,
2013-06-23 22:08:00,76.6,66.9,29.79,SE,135,0.0,0.0,72,0.00,,---,0.00,VWS V14.01,2013-06-24 02:08:00,
2013-06-23 22:09:00,76.5,66.8,29.79,South,180,0.0,0.0,72,0.00,,---,0.00,VWS V14.01,2013-06-24 02:09:00,
2013-06-23 22:10:00,76.5,66.8,29.79,SW,225,0.0,1.1,72,0.00,,---,0.00,VWS V14.01,2013-06-24 02:10:00,
2013-06-23 22:11:00,76.5,66.8,29.79,East,90,2.0,2.0,72,0.00,,---,0.00,VWS V14.01,2013-06-24 02:11:00,
2013-06-23 22:12:00,76.5,67.2,29.79,SE,135,0.9,2.0,73,0.00,,---,0.00,VWS V14.01,2013-06-24 02:12:00,
2013-06-23 22:13:00,76.5,67.2,29.79,East,90,0.0,1.1,73,0.00,,---,0.00,VWS V14.01,2013-06-24 02:13:00,
2013-06-23 22:14:00,76.5,67.2,29.79,East,90,0.0,0.9,73,0.00,,---,0.00,VWS V14.01,2013-06-24 02:14:00,
2013-06-23 22:15:00,76.5,67.2,29.79,East,90,0.0,0.0,73,0.00,,---,0.00,VWS V14.01,2013-06-24 02:15:00,
2013-06-23 22:16:00,76.5,67.2,29.79,East,90,0.0,0.0,73,0.00,,---,0.00,VWS V14.01,2013-06-24 02:16:00,
2013-06-23 22:17:00,76.5,67.2,29.79,East,90,0.0,0.0,73,0.00,,---,0.00,VWS V14.01,2013-06-24 02:17:00,
2013-06-23 22:18:00,76.5,67.2,29.79,East,90,0.0,0.0,73,0.00,,---,0.00,VWS V14.01,2013-06-24 02:18:00,
2013-06-23 22:19:00,76.3,67.0,29.79,East,90,0.0,0.0,73,0.00,,---,0.00,VWS V14.01,2013-06-24 02:19:00,
2013-06-23 22:20:00,76.3,67.0,29.79,East,90,0.0,0.0,73,0.00,,---,0.00,VWS V14.01,2013-06-24 02:20:00,
2013-06-23 22:21:00,76.3,67.0,29.79,East,90,0.0,0.0,73,0.00,,---,0.00,VWS V14.01,2013-06-24 02:21:00,
2013-06-23 22:22:00,76.3,67.0,29.79,East,90,0.0,0.0,73,0.00,,---,0.00,VWS V14.01,2013-06-24 02:22:00,
2013-06-23 22:23:00,76.3,67.0,29.79,East,90,0.0,0.0,73,0.00,,---,0.00,VWS V14.01,2013-06-24 02:23:00,
2013-06-23 22:24:00,76.1,66.8,29.79,East,90,0.0,0.0,73,0.00,,---,0.00,VWS V14.01,2013-06-24 02:24:00,
2013-06-23 22:25:00,76.1,66.8,29.79,East,90,0.0,0.0,73,0.00,,---,0.00,VWS V14.01,2013-06-24 02:25:00,
2013-06-23 22:26:00,76.1,66.8,29.79,East,90,0.0,0.0,73,0.00,,---,0.00,VWS V14.01,2013-06-24 02:26:00,
2013-06-23 22:27:00,75.9,66.7,29.79,East,90,0.0,0.0,73,0.00,,---,0.00,VWS V14.01,2013-06-24 02:27:00,
2013-06-23 22:28:00,75.9,66.7,29.79,East,90,0.0,0.0,73,0.00,,---,0.00,VWS V14.01,2013-06-24 02:28:00,
2013-06-23 22:29:00,75.9,66.7,29.79,East,90,0.0,0.0,73,0.00,,---,0.00,VWS V14.01,2013-06-24 02:29:00,
2013-06-23 22:30:00,75.9,66.7,29.79,East,90,0.0,0.0,73,0.00,,---,0.00,VWS V14.01,2013-06-24 02:30:00,
2013-06-23 22:31:00,75.7,66.9,29.79,East,90,0.0,0.0,74,0.00,,---,0.00,VWS V14.01,2013-06-24 02:31:00,
2013-06-23 22:32:00,75.7,66.9,29.79,East,90,0.0,0.0,74,0.00,,---,0.00,VWS V14.01,2013-06-24 02:32:00,
2013-06-23 22:33:00,75.7,66.9,29.79,NE,45,0.0,0.0,74,0.00,,---,0.00,VWS V14.01,2013-06-24 02:33:00,
2013-06-23 22:34:00,75.7,66.9,29.79,NE,45,0.0,0.0,74,0.00,,---,0.00,VWS V14.01,2013-06-24 02:34:00,
2013-06-23 22:35:00,75.6,66.7,29.79,NE,45,0.0,0.0,74,0.00,,---,0.00,VWS V14.01,2013-06-24 02:35:00,
2013-06-23 22:36:00,75.6,66.7,29.79,NE,45,0.0,0.0,74,0.00,,---,0.00,VWS V14.01,2013-06-24 02:36:00,
2013-06-23 22:37:00,75.6,66.7,29.76,NE,45,0.0,0.0,74,0.00,,---,0.00,VWS V14.01,2013-06-24 02:37:00,
2013-06-23 22:38:00,75.6,66.7,29.76,NE,45,0.0,0.0,74,0.00,,---,0.00,VWS V14.01,2013-06-24 02:38:00,
2013-06-23 22:39:00,75.4,66.9,29.76,NE,45,0.0,0.0,75,0.00,,---,0.00,VWS V14.01,2013-06-24 02:39:00,
2013-06-23 22:40:00,75.4,66.9,29.76,NE,45,0.0,0.0,75,0.00,,---,0.00,VWS V14.01,2013-06-24 02:40:00,
2013-06-23 22:41:00,75.4,66.9,29.76,NE,45,0.0,0.0,75,0.00,,---,0.00,VWS V14.01,2013-06-24 02:41:00,
2013-06-23 22:42:00,75.4,66.9,29.76,NE,45,0.0,0.0,75,0.00,,---,0.00,VWS V14.01,2013-06-24 02:42:00,
2013-06-23 22:43:00,75.4,66.9,29.76,NE,45,0.0,0.0,75,0.00,,---,0.00,VWS V14.01,2013-06-24 02:43:00,
2013-06-23 22:44:00,75.2,66.7,29.76,NE,45,0.0,0.0,75,0.00,,---,0.00,VWS V14.01,2013-06-24 02:44:00,
2013-06-23 22:45:00,75.2,66.7,29.76,West,270,0.9,0.9,75,0.00,,---,0.00,VWS V14.01,2013-06-24 02:45:00,
2013-06-23 22:46:00,75.2,66.7,29.76,SE,135,0.9,1.3,75,0.00,,---,0.00,VWS V14.01,2013-06-24 02:46:00,
2013-06-23 22:47:00,75.2,66.7,29.76,SW,225,0.9,1.3,75,0.00,,---,0.00,VWS V14.01,2013-06-24 02:47:00,
2013-06-23 22:48:00,75.2,67.1,29.76,SW,225,0.9,0.9,76,0.00,,---,0.00,VWS V14.01,2013-06-24 02:48:00,
2013-06-23 22:49:00,75.2,67.1,29.76,SW,225,0.0,1.6,76,0.00,,---,0.00,VWS V14.01,2013-06-24 02:49:00,
2013-06-23 22:50:00,75.2,67.1,29.76,SW,225,0.0,0.0,76,0.00,,---,0.00,VWS V14.01,2013-06-24 02:50:00,
2013-06-23 22:51:00,75.0,66.9,29.76,SW,225,0.0,0.9,76,0.00,,---,0.00,VWS V14.01,2013-06-24 02:51:00,
2013-06-23 22:52:00,75.0,66.9,29.76,SW,225,0.0,1.1,76,0.00,,---,0.00,VWS V14.01,2013-06-24 02:52:00,
2013-06-23 22:53:00,75.0,67.3,29.76,SW,225,0.0,0.9,77,0.00,,---,0.00,VWS V14.01,2013-06-24 02:53:00,
2013-06-23 22:54:00,75.0,66.9,29.76,SW,225,0.0,0.9,76,0.00,,---,0.00,VWS V14.01,2013-06-24 02:54:00,
2013-06-23 22:55:00,74.8,67.2,29.76,SW,225,0.0,1.1,77,0.00,,---,0.00,VWS V14.01,2013-06-24 02:55:00,
2013-06-23 22:56:00,74.8,67.2,29.76,SW,225,1.3,1.3,77,0.00,,---,0.00,VWS V14.01,2013-06-24 02:56:00,
2013-06-23 22:57:00,74.8,67.2,29.76,SW,225,0.0,1.3,77,0.00,,---,0.00,VWS V14.01,2013-06-24 02:57:00,
2013-06-23 22:58:00,74.8,67.2,29.76,SW,225,0.0,1.1,77,0.00,,---,0.00,VWS V14.01,2013-06-24 02:58:00,
2013-06-23 22:59:00,74.8,67.2,29.76,West,270,2.0,2.0,77,0.00,,---,0.00,VWS V14.01,2013-06-24 02:59:00,
2013-06-23 23:00:00,74.8,67.2,29.76,East,90,3.1,3.1,77,0.00,,---,0.00,VWS V14.01,2013-06-24 03:00:00,
2013-06-23 23:01:00,74.8,67.5,29.76,SE,135,0.0,3.1,78,0.00,,---,0.00,VWS V14.01,2013-06-24 03:01:00,
2013-06-23 23:02:00,74.8,67.5,29.76,SW,225,1.1,1.3,78,0.00,,---,0.00,VWS V14.01,2013-06-24 03:02:00,
2013-06-23 23:03:00,74.8,67.5,29.76,SW,225,0.9,1.3,78,0.00,,---,0.00,VWS V14.01,2013-06-24 03:03:00,
2013-06-23 23:04:00,74.7,67.3,29.76,SW,225,0.0,0.9,78,0.00,,---,0.00,VWS V14.01,2013-06-24 03:04:00,
2013-06-23 23:05:00,74.7,67.3,29.76,SW,225,0.0,0.9,78,0.00,,---,0.00,VWS V14.01,2013-06-24 03:05:00,
2013-06-23 23:06:00,74.7,67.3,29.76,SW,225,0.9,2.5,78,0.00,,---,0.00,VWS V14.01,2013-06-24 03:06:00,
2013-06-23 23:07:00,74.7,67.3,29.74,SW,225,2.0,2.0,78,0.00,,---,0.00,VWS V14.01,2013-06-24 03:07:00,
2013-06-23 23:08:00,74.7,67.3,29.74,SW,225,1.1,2.0,78,0.00,,---,0.00,VWS V14.01,2013-06-24 03:08:00,
2013-06-23 23:09:00,74.5,67.2,29.74,SW,225,0.0,1.1,78,0.00,,---,0.00,VWS V14.01,2013-06-24 03:09:00,
2013-06-23 23:10:00,74.5,67.2,29.74,SW,225,2.0,2.0,78,0.00,,---,0.00,VWS V14.01,2013-06-24 03:10:00,
2013-06-23 23:11:00,74.5,67.6,29.74,SW,225,0.0,2.0,79,0.00,,---,0.00,VWS V14.01,2013-06-24 03:11:00,
2013-06-23 23:12:00,74.5,67.6,29.74,SW,225,0.9,0.9,79,0.00,,---,0.00,VWS V14.01,2013-06-24 03:12:00,
2013-06-23 23:13:00,74.5,67.6,29.74,SW,225,0.9,1.3,79,0.00,,---,0.00,VWS V14.01,2013-06-24 03:13:00,
2013-06-23 23:14:00,74.3,67.4,29.74,SW,225,0.0,1.3,79,0.00,,---,0.00,VWS V14.01,2013-06-24 03:14:00,
2013-06-23 23:15:00,74.3,67.4,29.74,SW,225,0.0,1.1,79,0.00,,---,0.00,VWS V14.01,2013-06-24 03:15:00,
2013-06-23 23:16:00,74.3,67.4,29.74,SW,225,0.0,1.1,79,0.00,,---,0.00,VWS V14.01,2013-06-24 03:16:00,
2013-06-23 23:17:00,74.3,67.4,29.74,SW,225,2.0,2.0,79,0.00,,---,0.00,VWS V14.01,2013-06-24 03:17:00,
2013-06-23 23:18:00,74.3,67.7,29.74,West,270,2.0,2.2,80,0.00,,---,0.00,VWS V14.01,2013-06-24 03:18:00,
2013-06-23 23:19:00,74.3,67.7,29.74,West,270,1.6,2.0,80,0.00,,---,0.00,VWS V14.01,2013-06-24 03:19:00,
2013-06-23 23:20:00,74.3,67.7,29.74,West,270,0.0,1.6,80,0.00,,---,0.00,VWS V14.01,2013-06-24 03:20:00,
2013-06-23 23:21:00,74.3,67.7,29.74,West,270,1.6,1.6,80,0.00,,---,0.00,VWS V14.01,2013-06-24 03:21:00,
2013-06-23 23:22:00,74.3,67.7,29.74,West,270,1.1,1.6,80,0.00,,---,0.00,VWS V14.01,2013-06-24 03:22:00,
2013-06-23 23:23:00,74.3,67.7,29.74,West,270,1.3,2.5,80,0.00,,---,0.00,VWS V14.01,2013-06-24 03:23:00,
2013-06-23 23:24:00,74.3,67.7,29.74,West,270,0.0,1.6,80,0.00,,---,0.00,VWS V14.01,2013-06-24 03:24:00,
2013-06-23 23:25:00,74.3,67.7,29.74,West,270,1.1,1.1,80,0.00,,---,0.00,VWS V14.01,2013-06-24 03:25:00,
2013-06-23 23:26:00,74.3,67.7,29.74,West,270,0.0,1.1,80,0.00,,---,0.00,VWS V14.01,2013-06-24 03:26:00,
2013-06-23 23:27:00,74.1,67.6,29.74,West,270,0.0,1.3,80,0.00,,---,0.00,VWS V14.01,2013-06-24 03:27:00,
2013-06-23 23:28:00,74.1,67.6,29.74,West,270,0.0,0.0,80,0.00,,---,0.00,VWS V14.01,2013-06-24 03:28:00,
2013-06-23 23:29:00,74.1,67.6,29.74,ESE,112,0.0,1.6,80,0.00,,---,0.00,VWS V14.01,2013-06-24 03:29:00,
2013-06-23 23:30:00,74.1,67.6,29.74,SW,225,0.9,1.1,80,0.00,,---,0.00,VWS V14.01,2013-06-24 03:30:00,
2013-06-23 23:31:00,74.1,67.6,29.74,SW,225,0.0,1.1,80,0.00,,---,0.00,VWS V14.01,2013-06-24 03:31:00,
2013-06-23 23:32:00,74.1,67.6,29.74,SW,225,1.1,1.1,80,0.00,,---,0.00,VWS V14.01,2013-06-24 03:32:00,
2013-06-23 23:33:00,73.9,67.4,29.74,SW,225,0.0,1.1,80,0.00,,---,0.00,VWS V14.01,2013-06-24 03:33:00,
2013-06-23 23:34:00,73.9,67.4,29.74,SW,225,0.0,0.0,80,0.00,,---,0.00,VWS V14.01,2013-06-24 03:34:00,
2013-06-23 23:35:00,73.9,67.4,29.74,SW,225,0.0,1.3,80,0.00,,---,0.00,VWS V14.01,2013-06-24 03:35:00,
2013-06-23 23:36:00,73.9,67.4,29.74,SW,225,0.9,1.3,80,0.00,,---,0.00,VWS V14.01,2013-06-24 03:36:00,
2013-06-23 23:37:00,73.9,67.4,29.71,SW,225,1.3,1.3,80,0.00,,---,0.00,VWS V14.01,2013-06-24 03:37:00,
2013-06-23 23:38:00,73.9,67.4,29.71,SE,135,1.3,2.2,80,0.00,,---,0.00,VWS V14.01,2013-06-24 03:38:00,
2013-06-23 23:39:00,73.9,67.4,29.71,SW,225,0.9,1.3,80,0.00,,---,0.00,VWS V14.01,2013-06-24 03:39:00,
2013-06-23 23:40:00,73.8,67.6,29.71,SW,225,0.0,0.9,81,0.00,,---,0.00,VWS V14.01,2013-06-24 03:40:00,
2013-06-23 23:41:00,73.8,67.6,29.71,SW,225,0.0,1.3,81,0.00,,---,0.00,VWS V14.01,2013-06-24 03:41:00,
2013-06-23 23:42:00,73.8,67.6,29.71,SW,225,0.0,0.9,81,0.00,,---,0.00,VWS V14.01,2013-06-24 03:42:00,
2013-06-23 23:43:00,73.8,67.6,29.71,SW,225,0.9,1.1,81,0.00,,---,0.00,VWS V14.01,2013-06-24 03:43:00,
2013-06-23 23:44:00,73.8,67.6,29.71,South,180,1.1,1.1,81,0.00,,---,0.00,VWS V14.01,2013-06-24 03:44:00,
2013-06-23 23:45:00,73.8,67.6,29.71,SW,225,0.0,1.3,81,0.00,,---,0.00,VWS V14.01,2013-06-24 03:45:00,
2013-06-23 23:46:00,73.8,67.6,29.71,SSW,202,0.0,2.0,81,0.00,,---,0.00,VWS V14.01,2013-06-24 03:46:00,
2013-06-23 23:47:00,73.8,67.6,29.71,SW,225,0.0,1.3,81,0.00,,---,0.00,VWS V14.01,2013-06-24 03:47:00,
2013-06-23 23:48:00,73.8,67.6,29.71,SSW,202,1.1,1.3,81,0.00,,---,0.00,VWS V14.01,2013-06-24 03:48:00,
2013-06-23 23:49:00,73.8,67.6,29.71,SW,225,0.0,1.3,81,0.00,,---,0.00,VWS V14.01,2013-06-24 03:49:00,
2013-06-23 23:50:00,73.6,67.4,29.71,SW,225,0.0,1.3,81,0.00,,---,0.00,VWS V14.01,2013-06-24 03:50:00,
2013-06-23 23:51:00,73.8,67.6,29.71,SW,225,0.0,1.3,81,0.00,,---,0.00,VWS V14.01,2013-06-24 03:51:00,
2013-06-23 23:52:00,73.6,67.4,29.74,SW,225,0.0,1.3,81,0.00,,---,0.00,VWS V14.01,2013-06-24 03:52:00,
2013-06-23 23:53:00,73.6,67.4,29.74,SW,225,0.0,1.6,81,0.00,,---,0.00,VWS V14.01,2013-06-24 03:53:00,
2013-06-23 23:54:00,73.6,67.4,29.74,SW,225,0.9,1.6,81,0.00,,---,0.00,VWS V14.01,2013-06-24 03:54:00,
2013-06-23 23:55:00,73.6,67.8,29.74,WSW,248,0.0,1.3,82,0.00,,---,0.00,VWS V14.01,2013-06-24 03:55:00,
2013-06-23 23:56:00,73.6,67.8,29.74,WSW,248,0.0,0.9,82,0.00,,---,0.00,VWS V14.01,2013-06-24 03:56:00,
2013-06-23 23:57:00,73.6,67.8,29.74,SW,225,0.0,0.9,82,0.00,,---,0.00,VWS V14.01,2013-06-24 03:57:00,
2013-06-23 23:58:00,73.6,67.8,29.74,SE,135,0.9,1.6,82,0.00,,---,0.00,VWS V14.01,2013-06-24 03:58:00,
2013-06-23 23:59:00,73.6,67.8,29.74,SW,225,0.0,2.0,82,0.00,,---,0.00,VWS V14.01,2013-06-24 03:59:00,